FW6030 Weather Reports


Display with metric or nautical units.
time (UTC)temp
F
wind
direction
speed
MPH
gust
MPH
rain 1hr
in
rain 24hr
in
rain mn
in
humidity
%
barometer
mb
20260507205328 66 360 7.0 15.0 0.00 0.00 0.00 65 1016.8
20260507205248 66 360 8.0 15.0 0.00 0.00 0.00 65 1016.8
20260507205126 66 360 7.0 15.0 0.00 0.00 0.00 66 1016.8
20260507205026 66 360 8.0 15.0 0.00 0.00 0.00 66 1016.8
20260507204927 66 360 8.0 15.0 0.00 0.00 0.00 65 1016.8
20260507204828 66 360 8.0 15.0 0.00 0.00 0.00 65 1016.8
20260507204747 66 360 9.0 15.0 0.00 0.00 0.00 65 1016.8
20260507204632 66 360 10.0 16.0 0.00 0.00 0.00 65 1016.8
20260507204533 66 360 10.0 16.0 0.00 0.00 0.00 66 1016.8
20260507204432 66 360 10.0 16.0 0.00 0.00 0.00 66 1016.8
20260507204332 66 360 10.0 16.0 0.00 0.00 0.00 66 1016.8
20260507204232 66 360 11.0 16.0 0.00 0.00 0.00 65 1016.8
20260507204155 66 360 10.0 16.0 0.00 0.00 0.00 65 1016.9
20260507204035 66 360 10.0 16.0 0.00 0.00 0.00 65 1017.0
20260507203919 66 360 9.0 16.0 0.00 0.00 0.00 65 1017.0
20260507203820 66 360 9.0 16.0 0.00 0.00 0.00 65 1017.0
20260507203721 66 42 9.0 16.0 0.00 0.00 0.00 64 1017.2
20260507203620 66 360 9.0 16.0 0.00 0.00 0.00 64 1017.2
20260507203521 66 360 8.0 14.0 0.00 0.00 0.00 64 1017.2
20260507203421 66 360 8.0 14.0 0.00 0.00 0.00 64 1017.2
20260507203342 66 360 8.0 16.0 0.00 0.00 0.00 64 1017.3
20260507203226 66 360 9.0 16.0 0.00 0.00 0.00 65 1017.3
20260507203127 66 360 9.0 16.0 0.00 0.00 0.00 65 1017.4
20260507203029 66 360 8.0 16.0 0.00 0.00 0.00 65 1017.5
20260507202930 66 360 7.0 16.0 0.00 0.00 0.00 65 1017.5
20260507202831 66 360 7.0 16.0 0.00 0.00 0.00 65 1017.6
20260507202732 66 360 7.0 16.0 0.00 0.00 0.00 65 1017.7
20260507202616 66 360 6.0 16.0 0.00 0.00 0.00 66 1017.6
20260507202517 66 360 6.0 16.0 0.00 0.00 0.00 66 1017.7
20260507202434 66 47 6.0 13.0 0.00 0.00 0.00 66 1017.7
20260507202337 66 360 7.0 13.0 0.00 0.00 0.00 66 1017.7
20260507202238 66 360 7.0 13.0 0.00 0.00 0.00 66 1017.6
20260507202118 66 360 7.0 13.0 0.00 0.00 0.00 65 1017.6
20260507202018 66 360 7.0 13.0 0.00 0.00 0.00 66 1017.6
20260507201918 66 360 7.0 13.0 0.00 0.00 0.00 66 1017.6
20260507201824 66 360 7.0 13.0 0.00 0.00 0.00 66 1017.7
20260507201744 66 360 7.0 14.0 0.00 0.00 0.00 66 1017.7
20260507201623 66 360 7.0 14.0 0.00 0.00 0.00 66 1017.7
20260507201544 66 360 6.0 14.0 0.00 0.00 0.00 66 1017.7
20260507201424 66 360 7.0 14.0 0.00 0.00 0.00 66 1017.6
20260507201324 66 360 7.0 14.0 0.00 0.00 0.00 66 1017.5
20260507201225 66 360 8.0 14.0 0.00 0.00 0.00 66 1017.6
20260507201131 66 360 8.0 16.0 0.00 0.00 0.00 66 1017.6
20260507201051 66 360 9.0 16.0 0.00 0.00 0.00 66 1017.6
20260507200931 66 360 9.0 16.0 0.00 0.00 0.00 66 1017.7
20260507200832 66 360 10.0 16.0 0.00 0.00 0.00 66 1017.6
20260507200752 66 360 10.0 16.0 0.00 0.00 0.00 66 1017.7
20260507200632 66 360 10.0 16.0 0.00 0.00 0.00 66 1017.6
20260507200533 66 360 9.0 16.0 0.00 0.00 0.00 66 1017.7
20260507200417 66 360 9.0 16.0 0.00 0.00 0.00 66 1017.7
20260507200317 66 360 9.0 16.0 0.00 0.00 0.00 66 1017.8
20260507200219 66 360 9.0 16.0 0.00 0.00 0.00 67 1017.7
20260507200119 66 360 9.0 16.0 0.00 0.00 0.00 67 1017.8
20260507200020 67 360 9.0 15.0 0.00 0.00 0.00 67 1017.7
20260507195941 66 360 9.0 15.0 0.00 0.00 0.00 67 1017.6
20260507195822 66 323 9.0 15.0 0.00 0.00 0.00 67 1017.5
20260507195741 67 360 8.0 15.0 0.00 0.00 0.00 67 1017.5
20260507195625 67 360 8.0 15.0 0.00 0.00 0.00 67 1017.4
20260507195526 67 360 8.0 15.0 0.00 0.00 0.00 67 1017.4
20260507195425 67 360 8.0 15.0 0.00 0.00 0.00 67 1017.4
20260507195326 67 360 8.0 15.0 0.00 0.00 0.00 67 1017.4
20260507195227 66 360 7.0 15.0 0.00 0.00 0.00 67 1017.4
20260507195127 66 360 8.0 15.0 0.00 0.00 0.00 67 1017.4
20260507195028 66 360 8.0 15.0 0.00 0.00 0.00 67 1017.4
20260507194932 66 360 8.0 13.0 0.00 0.00 0.00 67 1017.6
20260507194833 66 360 8.0 13.0 0.00 0.00 0.00 67 1017.7
20260507194733 66 360 7.0 13.0 0.00 0.00 0.00 67 1017.9
20260507194634 66 360 7.0 15.0 0.00 0.00 0.00 67 1018.0
20260507194534 66 360 7.0 15.0 0.00 0.00 0.00 67 1018.0
20260507194435 66 360 7.0 15.0 0.00 0.00 0.00 67 1018.1
20260507194319 66 360 7.0 15.0 0.00 0.00 0.00 66 1018.0
20260507194220 66 360 7.0 15.0 0.00 0.00 0.00 67 1018.0
20260507194140 66 360 7.0 15.0 0.00 0.00 0.00 67 1018.0
20260507194019 66 360 8.0 15.0 0.00 0.00 0.00 68 1017.9
20260507193919 66 360 8.0 15.0 0.00 0.00 0.00 68 1017.9
20260507193819 66 360 8.0 15.0 0.00 0.00 0.00 68 1017.9
20260507193719 66 360 8.0 15.0 0.00 0.00 0.00 68 1017.8
20260507193621 66 360 9.0 15.0 0.00 0.00 0.00 68 1017.8
20260507193526 66 360 9.0 15.0 0.00 0.00 0.00 68 1017.9
20260507193425 66 360 9.0 15.0 0.00 0.00 0.00 68 1017.9
20260507193326 66 360 8.0 15.0 0.00 0.00 0.00 68 1017.8
20260507193225 66 360 7.0 15.0 0.00 0.00 0.00 68 1017.9
20260507193126 66 49 7.0 14.0 0.00 0.00 0.00 68 1017.9
20260507193026 66 360 6.0 14.0 0.00 0.00 0.00 68 1017.8
20260507192926 66 360 6.0 14.0 0.00 0.00 0.00 69 1017.8
20260507192830 66 360 5.0 12.0 0.00 0.00 0.00 70 1017.8
20260507192753 66 64 5.0 11.0 0.00 0.00 0.00 70 1017.9
20260507192630 66 360 5.0 11.0 0.00 0.00 0.00 70 1018.0
20260507192552 66 360 6.0 11.0 0.00 0.00 0.00 70 1017.9
20260507192433 66 360 6.0 11.0 0.00 0.00 0.00 70 1018.0
20260507192353 66 360 6.0 11.0 0.00 0.00 0.00 71 1018.0
20260507192232 65 360 6.0 11.0 0.00 0.00 0.00 71 1018.0
20260507192116 65 360 6.0 11.0 0.00 0.00 0.00 70 1018.2
20260507192017 65 360 6.0 11.0 0.00 0.00 0.00 71 1018.2
20260507191918 65 360 5.0 10.0 0.00 0.00 0.00 71 1018.2
20260507191839 65 360 5.0 10.0 0.00 0.00 0.00 71 1018.3
20260507191717 65 360 5.0 10.0 0.00 0.00 0.00 71 1018.3
20260507191618 64 360 5.0 10.0 0.00 0.00 0.00 71 1018.3
20260507191519 64 360 5.0 10.0 0.00 0.00 0.00 71 1018.2
20260507191439 64 360 4.0 10.0 0.00 0.00 0.00 72 1018.2
20260507191323 64 360 4.0 10.0 0.00 0.00 0.00 72 1018.2
20260507191223 64 360 5.0 10.0 0.00 0.00 0.00 72 1018.2
20260507191124 64 360 5.0 10.0 0.00 0.00 0.00 72 1018.2
20260507191045 64 360 5.0 10.0 0.00 0.00 0.00 72 1018.2
20260507190924 64 360 5.0 10.0 0.00 0.00 0.00 72 1018.2
20260507190824 64 360 5.0 10.0 0.00 0.00 0.00 72 1018.1
20260507190723 64 360 5.0 10.0 0.00 0.00 0.00 72 1018.1
20260507190628 64 360 5.0 9.0 0.00 0.00 0.00 72 1018.1
20260507190529 64 360 5.0 9.0 0.00 0.00 0.00 72 1018.2
20260507190430 64 360 4.0 9.0 0.00 0.00 0.00 73 1018.2
20260507190330 64 360 4.0 8.0 0.00 0.00 0.00 73 1018.2
20260507190230 64 360 3.0 8.0 0.00 0.00 0.00 73 1018.4
20260507190131 64 360 4.0 9.0 0.00 0.00 0.00 73 1018.4
20260507190031 64 360 3.0 9.0 0.00 0.00 0.00 73 1018.5
20260507185935 64 70 4.0 12.0 0.00 0.00 0.00 72 1018.4
20260507185834 63 360 4.0 12.0 0.00 0.00 0.00 72 1018.3
20260507185736 63 360 5.0 12.0 0.00 0.00 0.00 72 1018.1
20260507185656 63 360 5.0 12.0 0.00 0.00 0.00 72 1018.0
20260507185535 63 360 6.0 12.0 0.00 0.00 0.00 72 1018.0
20260507185416 63 82 7.0 12.0 0.00 0.00 0.00 72 1018.0
20260507185319 63 360 7.0 12.0 0.00 0.00 0.00 72 1018.1
20260507185220 63 360 7.0 12.0 0.00 0.00 0.00 71 1018.0
20260507185121 63 360 7.0 12.0 0.00 0.00 0.00 71 1018.0
20260507185021 64 66 7.0 12.0 0.00 0.00 0.00 71 1018.0
20260507184943 64 360 7.0 11.0 0.00 0.00 0.00 71 1018.0
20260507184816 64 360 6.0 11.0 0.00 0.00 0.00 71 1018.2
20260507184717 64 360 7.0 11.0 0.00 0.00 0.00 71 1018.3
20260507184622 64 360 7.0 11.0 0.00 0.00 0.00 71 1018.3
20260507184521 64 360 7.0 11.0 0.00 0.00 0.00 71 1018.4
20260507184443 64 360 7.0 11.0 0.00 0.00 0.00 71 1018.4
20260507184316 64 360 6.0 11.0 0.00 0.00 0.00 72 1018.5
20260507184216 64 360 6.0 11.0 0.00 0.00 0.00 72 1018.5
20260507184118 64 360 6.0 11.0 0.00 0.00 0.00 72 1018.6
20260507184023 64 360 6.0 11.0 0.00 0.00 0.00 72 1018.7
20260507183921 64 360 6.0 11.0 0.00 0.00 0.00 72 1018.7
20260507183822 64 70 6.0 11.0 0.00 0.00 0.00 72 1018.6
20260507183723 64 360 7.0 11.0 0.00 0.00 0.00 72 1018.6
20260507183643 64 360 7.0 12.0 0.00 0.00 0.00 72 1018.5
20260507183523 64 360 7.0 12.0 0.00 0.00 0.00 72 1018.6
20260507183444 64 360 7.0 12.0 0.00 0.00 0.00 72 1018.6
20260507183343 64 360 7.0 12.0 0.00 0.00 0.00 72 1018.6
20260507183223 64 360 7.0 12.0 0.00 0.00 0.00 71 1018.6
20260507183128 64 360 7.0 12.0 0.00 0.00 0.00 72 1018.6
20260507183028 64 360 6.0 12.0 0.00 0.00 0.00 72 1018.6
20260507182928 64 360 6.0 12.0 0.00 0.00 0.00 72 1018.6
20260507182849 64 91 6.0 12.0 0.00 0.00 0.00 72 1018.7
20260507182726 64 360 6.0 12.0 0.00 0.00 0.00 72 1018.6
20260507182648 64 360 5.0 14.0 0.00 0.00 0.00 72 1018.6
20260507182547 64 360 6.0 14.0 0.00 0.00 0.00 72 1018.6
20260507182447 64 360 6.0 14.0 0.00 0.00 0.00 72 1018.6
20260507182326 64 360 6.0 14.0 0.00 0.00 0.00 72 1018.8
20260507182230 64 360 6.0 14.0 0.00 0.00 0.00 72 1018.8
20260507182150 64 360 6.0 14.0 0.00 0.00 0.00 72 1018.8
20260507182030 64 360 7.0 14.0 0.00 0.00 0.00 72 1018.8
20260507181930 64 360 7.0 14.0 0.00 0.00 0.00 73 1018.8
20260507181831 64 360 6.0 14.0 0.00 0.00 0.00 73 1018.8
20260507181732 64 360 6.0 12.0 0.00 0.00 0.00 73 1018.7
20260507181652 64 360 5.0 10.0 0.00 0.00 0.00 72 1018.7
20260507181517 64 360 6.0 11.0 0.00 0.00 0.00 73 1018.6
20260507181418 64 360 5.0 11.0 0.00 0.00 0.00 73 1018.6
20260507181318 64 360 5.0 15.0 0.00 0.00 0.00 73 1018.6
20260507181218 64 360 5.0 15.0 0.00 0.00 0.00 73 1018.7
20260507181119 64 360 5.0 15.0 0.00 0.00 0.00 73 1018.7
20260507181019 64 360 6.0 15.0 0.00 0.00 0.00 72 1018.8
20260507180920 64 360 7.0 15.0 0.00 0.00 0.00 73 1018.8
20260507180824 64 360 7.0 15.0 0.00 0.00 0.00 73 1018.8
20260507180724 63 12 8.0 15.0 0.00 0.00 0.00 73 1018.7
20260507180625 63 360 8.0 15.0 0.00 0.00 0.00 73 1018.6
20260507180525 63 360 8.0 15.0 0.00 0.00 0.00 73 1018.5
20260507180426 63 360 8.0 14.0 0.00 0.00 0.00 74 1018.4
20260507180345 63 360 7.0 14.0 0.00 0.00 0.00 74 1018.4
20260507180224 63 360 6.0 12.0 0.00 0.00 0.00 73 1018.4
20260507180129 63 360 6.0 12.0 0.00 0.00 0.00 74 1018.4
20260507180029 63 360 5.0 12.0 0.00 0.00 0.00 74 1018.4
20260507175929 63 360 5.0 12.0 0.00 0.00 0.00 75 1018.5
20260507175830 63 360 5.0 12.0 0.00 0.00 0.00 75 1018.4
20260507175730 62 360 6.0 13.0 0.00 0.00 0.00 75 1018.4
20260507175630 62 360 6.0 13.0 0.00 0.00 0.00 74 1018.5
20260507175534 62 360 7.0 13.0 0.00 0.00 0.00 75 1018.5
20260507175435 62 360 7.0 13.0 0.00 0.00 0.00 75 1018.4
20260507175334 62 360 6.0 13.0 0.00 0.00 0.00 76 1018.6
20260507175236 62 360 6.0 13.0 0.00 0.00 0.00 76 1018.6
20260507175136 62 360 6.0 13.0 0.00 0.00 0.00 76 1018.6
20260507175056 62 360 6.0 13.0 0.00 0.00 0.00 75 1018.5
20260507174935 62 360 7.0 13.0 0.00 0.00 0.00 75 1018.4
20260507174819 62 360 7.0 12.0 0.00 0.00 0.00 76 1018.2
20260507174740 62 360 7.0 12.0 0.00 0.00 0.00 76 1018.3
20260507174620 62 360 7.0 12.0 0.00 0.00 0.00 76 1018.3
20260507174520 62 360 6.0 12.0 0.00 0.00 0.00 76 1018.3
20260507174420 61 360 6.0 12.0 0.00 0.00 0.00 76 1018.3
20260507174322 61 360 6.0 12.0 0.00 0.00 0.00 76 1018.3
20260507174243 61 360 6.0 12.0 0.00 0.00 0.00 77 1018.4
20260507174127 61 360 6.0 12.0 0.00 0.00 0.00 76 1018.4
20260507174028 61 360 8.0 12.0 0.00 0.00 0.00 76 1018.4
20260507173929 61 360 8.0 13.0 0.00 0.00 0.00 76 1018.3
20260507173830 61 360 7.0 13.0 0.00 0.00 0.00 76 1018.3
20260507173731 61 360 7.0 13.0 0.00 0.00 0.00 76 1018.1
20260507173631 61 360 7.0 13.0 0.00 0.00 0.00 76 1018.1
20260507173531 61 360 7.0 13.0 0.00 0.00 0.00 76 1018.2
20260507173416 61 360 8.0 13.0 0.00 0.00 0.00 77 1018.4
20260507173336 61 360 8.0 13.0 0.00 0.00 0.00 77 1018.4
20260507173236 61 360 8.0 13.0 0.00 0.00 0.00 77 1018.5
20260507173135 61 360 7.0 13.0 0.00 0.00 0.00 77 1018.5
20260507173016 61 360 6.0 11.0 0.00 0.00 0.00 76 1018.6
20260507172916 61 360 5.0 9.0 0.00 0.00 0.00 77 1018.6
20260507172822 61 360 5.0 9.0 0.00 0.00 0.00 77 1018.6
20260507172721 61 360 4.0 9.0 0.00 0.00 0.00 77 1018.7
20260507172621 61 360 4.0 9.0 0.00 0.00 0.00 77 1018.7
20260507172522 61 360 5.0 10.0 0.00 0.00 0.00 78 1018.6
20260507172422 61 360 4.0 10.0 0.00 0.00 0.00 78 1018.6
20260507172323 61 360 5.0 10.0 0.00 0.00 0.00 78 1018.7
20260507172224 61 360 5.0 10.0 0.00 0.00 0.00 78 1018.7
20260507172129 61 360 5.0 10.0 0.00 0.00 0.00 78 1018.7
20260507172049 61 360 5.0 10.0 0.00 0.00 0.00 78 1018.7
20260507171929 61 360 5.0 10.0 0.00 0.00 0.00 78 1018.7
20260507171827 61 78 4.0 10.0 0.00 0.00 0.00 78 1018.7
20260507171727 61 360 4.0 10.0 0.00 0.00 0.00 78 1018.6
20260507171648 61 360 4.0 10.0 0.00 0.00 0.00 78 1018.6
20260507171527 60 360 5.0 10.0 0.00 0.00 0.00 78 1018.7
20260507171428 60 79 6.0 10.0 0.00 0.00 0.00 78 1018.7
20260507171330 60 360 6.0 10.0 0.00 0.00 0.00 78 1018.7
20260507171231 60 360 6.0 10.0 0.00 0.00 0.00 77 1018.8
20260507171131 60 360 6.0 10.0 0.00 0.00 0.00 77 1018.7
20260507171031 60 360 5.0 10.0 0.00 0.00 0.00 79 1018.8
20260507170932 61 360 5.0 11.0 0.00 0.00 0.00 79 1018.8
20260507170832 60 37 4.0 11.0 0.00 0.00 0.00 78 1018.9
20260507170717 60 360 4.0 11.0 0.00 0.00 0.00 78 1018.9
20260507170618 60 360 4.0 11.0 0.00 0.00 0.00 79 1018.9
20260507170538 60 360 5.0 11.0 0.00 0.00 0.00 79 1018.8
20260507170418 60 360 6.0 11.0 0.00 0.00 0.00 79 1018.7
20260507170317 60 360 6.0 11.0 0.00 0.00 0.00 79 1018.6
20260507170219 60 360 6.0 11.0 0.00 0.00 0.00 79 1018.7
20260507170139 60 360 6.0 11.0 0.00 0.00 0.00 79 1018.7
20260507170019 61 360 5.0 11.0 0.00 0.00 0.00 79 1018.8
20260507165943 61 360 6.0 11.0 0.00 0.00 0.00 79 1018.8
20260507165844 61 360 7.0 11.0 0.00 0.00 0.00 79 1018.8
20260507165716 61 360 6.0 11.0 0.00 0.00 0.00 79 1018.7
20260507165637 61 360 6.0 11.0 0.00 0.00 0.00 78 1018.7
20260507165516 61 360 5.0 11.0 0.00 0.00 0.00 79 1018.8
20260507165417 61 360 5.0 11.0 0.00 0.00 0.00 79 1019.1
20260507165318 61 360 6.0 11.0 0.00 0.00 0.00 79 1019.1
20260507165238 61 360 6.0 11.0 0.00 0.00 0.00 79 1019.1
20260507165203 61 44 6.0 11.0 0.00 0.00 0.00 79 1019.1
20260507165104 61 360 5.0 11.0 0.00 0.00 0.00 80 1019.2
20260507164916 60 360 5.0 11.0 0.00 0.00 0.00 80 1019.1
20260507164816 60 360 5.0 12.0 0.00 0.00 0.00 80 1019.1
20260507164717 60 360 6.0 13.0 0.00 0.00 0.00 80 1019.2
20260507164617 60 20 6.0 13.0 0.00 0.00 0.00 80 1019.2
20260507164518 60 360 6.0 13.0 0.00 0.00 0.00 80 1019.2
20260507164423 60 360 6.0 13.0 0.00 0.00 0.00 80 1019.1
20260507164324 60 360 6.0 13.0 0.00 0.00 0.00 80 1019.1
20260507164224 60 360 6.0 13.0 0.00 0.00 0.00 80 1019.1
20260507164125 60 360 6.0 13.0 0.00 0.00 0.00 80 1019.0
20260507164026 60 45 5.0 13.0 0.00 0.00 0.00 80 1019.0
20260507163927 60 360 5.0 13.0 0.00 0.00 0.00 80 1019.0
20260507163831 60 360 5.0 13.0 0.00 0.00 0.00 80 1019.0
20260507163732 60 360 5.0 13.0 0.00 0.00 0.00 80 1019.0
20260507163634 60 360 6.0 13.0 0.00 0.00 0.00 80 1018.9
20260507163534 60 51 7.0 13.0 0.00 0.00 0.00 80 1019.0
20260507163454 60 360 6.0 13.0 0.00 0.00 0.00 81 1019.0
20260507163354 60 360 6.0 12.0 0.00 0.00 0.00 81 1018.9
20260507163234 60 360 5.0 12.0 0.00 0.00 0.00 81 1018.8
20260507163119 60 360 5.0 12.0 0.00 0.00 0.00 81 1018.7
20260507163019 60 360 4.0 13.0 0.00 0.00 0.00 81 1018.9
20260507162940 60 360 4.0 13.0 0.00 0.00 0.00 81 1019.1
20260507162820 60 360 4.0 13.0 0.00 0.00 0.00 82 1019.1
20260507162741 60 360 5.0 13.0 0.00 0.00 0.00 81 1019.1
20260507162620 60 360 6.0 13.0 0.00 0.00 0.00 81 1019.1
20260507162521 60 56 6.0 15.0 0.00 0.00 0.00 81 1019.2
20260507162421 60 360 7.0 15.0 0.00 0.00 0.00 82 1019.3
20260507162344 60 360 6.0 16.0 0.00 0.00 0.00 82 1019.3
20260507162224 60 360 6.0 16.0 0.00 0.00 0.00 81 1019.3
20260507162124 60 360 6.0 16.0 0.00 0.00 0.00 82 1019.4
20260507162025 60 360 7.0 16.0 0.00 0.00 0.00 82 1019.4
20260507161925 60 360 8.0 16.0 0.00 0.00 0.00 82 1019.4
20260507161826 60 360 9.0 16.0 0.00 0.00 0.00 82 1019.3
20260507161725 60 360 8.0 16.0 0.00 0.00 0.00 82 1019.2
20260507161630 60 360 8.0 16.0 0.00 0.00 0.00 82 1019.2
20260507161530 60 360 8.0 16.0 0.00 0.00 0.00 82 1019.1
20260507161430 60 360 9.0 16.0 0.00 0.00 0.00 82 1019.0
20260507161331 60 360 10.0 16.0 0.00 0.00 0.00 82 1018.8
20260507161232 60 360 10.0 16.0 0.00 0.00 0.00 82 1019.0
20260507161133 60 360 10.0 14.0 0.00 0.00 0.00 82 1019.1
20260507161017 60 360 9.0 14.0 0.00 0.00 0.00 82 1019.3
20260507160918 60 360 9.0 15.0 0.00 0.00 0.00 82 1019.4
20260507160818 60 360 8.0 15.0 0.00 0.00 0.00 82 1019.6
20260507160719 60 18 8.0 15.0 0.00 0.00 0.00 82 1019.8
20260507160620 60 360 8.0 15.0 0.00 0.00 0.00 82 1019.9
20260507160521 60 360 8.0 15.0 0.00 0.00 0.00 82 1020.1
20260507160427 60 360 8.0 15.0 0.00 0.00 0.00 82 1020.1
20260507160327 60 360 9.0 15.0 0.00 0.00 0.00 82 1020.1
20260507160226 60 360 9.0 15.0 0.00 0.00 0.00 82 1020.1
20260507160124 60 360 9.0 15.0 0.00 0.00 0.00 82 1020.1
20260507160045 60 360 8.0 14.0 0.00 0.00 0.00 82 1020.1
20260507155925 60 360 8.0 14.0 0.00 0.00 0.00 83 1020.1
20260507155827 60 360 8.0 13.0 0.00 0.00 0.00 83 1020.1
20260507155747 60 360 9.0 13.0 0.00 0.00 0.00 83 1019.7
20260507155625 60 360 8.0 13.0 0.00 0.00 0.00 83 1019.7
20260507155530 60 360 8.0 13.0 0.00 0.00 0.00 83 1019.7
20260507155430 60 360 8.0 13.0 0.00 0.00 0.00 83 1019.5
20260507155331 60 360 7.0 13.0 0.00 0.00 0.00 83 1019.5
20260507155232 60 360 6.0 11.0 0.00 0.00 0.00 83 1019.3
20260507155132 60 360 5.0 11.0 0.00 0.00 0.00 83 1019.3
20260507155032 60 360 5.0 11.0 0.00 0.00 0.00 83 1019.1
20260507154917 60 360 5.0 14.0 0.00 0.00 0.00 83 1019.1
20260507154818 60 360 5.0 14.0 0.00 0.00 0.00 83 1019.1
20260507154719 59 360 6.0 14.0 0.00 0.00 0.00 83 1019.1
20260507154619 59 360 7.0 14.0 0.00 0.00 0.00 83 1019.2
20260507154520 59 360 7.0 14.0 0.00 0.00 0.00 83 1019.3
20260507154420 59 50 8.0 14.0 0.00 0.00 0.00 83 1019.3
20260507154324 59 360 8.0 14.0 0.00 0.00 0.00 83 1019.3
20260507154225 59 360 8.0 14.0 0.00 0.00 0.00 83 1019.4
20260507154126 59 360 8.0 14.0 0.00 0.00 0.00 83 1019.4
20260507154027 59 360 9.0 14.0 0.00 0.00 0.00 84 1019.3
20260507153948 59 360 9.0 14.0 0.00 0.00 0.00 84 1019.4
20260507153826 59 360 9.0 14.0 0.00 0.00 0.00 84 1019.4
20260507153727 59 360 9.0 14.0 0.00 0.00 0.00 84 1019.4
20260507153631 59 360 9.0 14.0 0.00 0.00 0.00 84 1019.4
20260507153532 59 360 9.0 14.0 0.00 0.00 0.00 84 1019.4
20260507153428 59 360 9.0 14.0 0.00 0.00 0.00 84 1019.4
20260507153329 59 360 9.0 14.0 0.00 0.00 0.00 84 1019.5
20260507153231 59 360 9.0 14.0 0.00 0.00 0.00 84 1019.6
20260507153132 59 360 8.0 14.0 0.00 0.00 0.00 84 1019.5
20260507153031 59 360 8.0 14.0 0.00 0.00 0.00 84 1019.5
20260507152956 59 360 7.0 14.0 0.00 0.00 0.00 84 1019.6
20260507152817 59 360 6.0 12.0 0.00 0.00 0.00 84 1019.5
20260507152717 59 360 7.0 12.0 0.00 0.00 0.00 84 1019.6
20260507152618 59 360 7.0 11.0 0.00 0.00 0.00 84 1019.5
20260507152518 59 360 6.0 10.0 0.00 0.00 0.00 85 1019.5
20260507152418 59 360 5.0 10.0 0.00 0.00 0.00 85 1019.5
20260507152338 59 360 4.0 14.0 0.00 0.00 0.00 85 1019.3
20260507152242 59 360 5.0 14.0 0.00 0.00 0.00 85 1019.3
20260507152115 59 360 5.0 16.0 0.00 0.00 0.00 85 1019.3
20260507152016 59 360 4.0 16.0 0.00 0.00 0.00 85 1019.3
20260507151918 59 360 5.0 16.0 0.00 0.00 0.00 85 1019.4
20260507151818 59 360 5.0 16.0 0.00 0.00 0.00 85 1019.4
20260507151738 59 360 7.0 16.0 0.00 0.00 0.00 85 1019.4
20260507151618 59 360 8.0 16.0 0.00 0.00 0.00 85 1019.4
20260507151542 59 360 9.0 16.0 0.00 0.00 0.00 84 1019.4
20260507151416 59 360 10.0 16.0 0.00 0.00 0.00 84 1019.6
20260507151316 59 360 11.0 16.0 0.00 0.00 0.00 84 1019.5
20260507151217 59 360 10.0 16.0 0.00 0.00 0.00 84 1019.5
20260507151117 59 360 9.0 16.0 0.00 0.00 0.00 84 1019.4
20260507151018 59 360 10.0 16.0 0.00 0.00 0.00 84 1019.6
20260507150917 59 360 9.0 16.0 0.00 0.00 0.00 84 1019.4
20260507150822 59 360 10.0 18.0 0.00 0.00 0.00 84 1019.4
20260507150742 59 360 10.0 18.0 0.00 0.00 0.00 84 1019.4
20260507150616 59 360 9.0 18.0 0.00 0.00 0.00 84 1019.3
20260507150516 59 360 9.0 18.0 0.00 0.00 0.00 84 1019.3
20260507150437 59 360 9.0 18.0 0.00 0.00 0.00 84 1019.3
20260507150336 59 11 9.0 18.0 0.00 0.00 0.00 84 1019.3
20260507150258 59 360 10.0 18.0 0.00 0.00 0.00 84 1019.3
20260507150156 59 360 11.0 18.0 0.00 0.00 0.00 84 1019.4
20260507150020 59 360 11.0 17.0 0.00 0.00 0.00 84 1019.3
20260507145940 59 360 10.0 17.0 0.00 0.00 0.00 84 1019.4
20260507145841 59 360 9.0 17.0 0.00 0.00 0.00 84 1019.3
20260507145721 59 360 8.0 16.0 0.00 0.00 0.00 84 1019.3
20260507145620 59 360 7.0 16.0 0.00 0.00 0.00 84 1019.3
20260507145541 59 360 7.0 16.0 0.00 0.00 0.00 85 1019.4
20260507145421 59 360 8.0 16.0 0.00 0.00 0.00 85 1019.4
20260507145321 59 360 9.0 16.0 0.00 0.00 0.00 85 1019.4
20260507145227 59 360 9.0 16.0 0.00 0.00 0.00 85 1019.4
20260507145127 59 360 9.0 16.0 0.00 0.00 0.00 85 1019.4
20260507145027 59 360 9.0 16.0 0.00 0.00 0.00 85 1019.4
20260507144927 59 360 9.0 16.0 0.00 0.00 0.00 85 1019.3
20260507144827 59 360 9.0 16.0 0.00 0.00 0.00 85 1019.4
20260507144747 59 360 8.0 16.0 0.00 0.00 0.00 85 1019.4
20260507144625 59 360 7.0 14.0 0.00 0.00 0.00 85 1019.5
20260507144531 59 360 8.0 14.0 0.00 0.00 0.00 85 1019.5
20260507144431 59 360 9.0 14.0 0.00 0.00 0.00 85 1019.5
20260507144331 59 360 8.0 14.0 0.00 0.00 0.00 85 1019.5
20260507144232 59 360 7.0 13.0 0.00 0.00 0.00 85 1019.6
20260507144152 59 360 6.0 13.0 0.00 0.00 0.00 85 1019.5
20260507144032 59 360 7.0 13.0 0.00 0.00 0.00 85 1019.5
20260507143932 59 360 8.0 13.0 0.00 0.00 0.00 85 1019.6
20260507143816 59 360 8.0 13.0 0.00 0.00 0.00 85 1019.6
20260507143717 59 360 7.0 12.0 0.00 0.00 0.00 85 1019.7
20260507143617 59 360 6.0 12.0 0.00 0.00 0.00 85 1019.7
20260507143539 59 360 5.0 12.0 0.00 0.00 0.00 85 1019.7
20260507143416 59 360 5.0 12.0 0.00 0.00 0.00 85 1019.7
20260507143337 59 360 5.0 12.0 0.00 0.00 0.00 85 1019.8
20260507143217 59 360 6.0 12.0 0.00 0.00 0.00 85 1019.7
20260507143117 58 360 7.0 12.0 0.00 0.00 0.00 85 1019.7
20260507143038 59 360 8.0 12.0 0.00 0.00 0.00 85 1019.7
20260507142922 59 360 7.0 12.0 0.00 0.00 0.00 85 1019.7
20260507142823 59 360 6.0 11.0 0.00 0.00 0.00 85 1019.8
20260507142743 59 360 5.0 11.0 0.00 0.00 0.00 85 1019.9
20260507142621 59 360 4.0 10.0 0.00 0.00 0.00 85 1019.8
20260507142543 59 360 4.0 10.0 0.00 0.00 0.00 85 1019.8
20260507142416 59 360 5.0 10.0 0.00 0.00 0.00 85 1019.9
20260507142316 59 360 5.0 10.0 0.00 0.00 0.00 85 1019.8
20260507142221 59 360 5.0 10.0 0.00 0.00 0.00 85 1019.9
20260507142121 58 360 5.0 10.0 0.00 0.00 0.00 85 1019.8
20260507142021 58 360 6.0 14.0 0.00 0.00 0.00 85 1019.8
20260507141942 58 360 6.0 14.0 0.00 0.00 0.00 85 1019.8
20260507141821 58 360 6.0 14.0 0.00 0.00 0.00 85 1019.7
20260507141721 58 360 5.0 14.0 0.00 0.00 0.00 85 1019.7
20260507141622 58 360 4.0 14.0 0.00 0.00 0.00 85 1019.6
20260507141543 59 360 3.0 15.0 0.00 0.00 0.00 85 1019.6
20260507141427 58 360 3.0 15.0 0.00 0.00 0.00 85 1019.6
20260507141327 58 360 4.0 15.0 0.00 0.00 0.00 86 1019.5
20260507141248 58 360 6.0 16.0 0.00 0.00 0.00 85 1019.5
20260507141127 58 360 8.0 16.0 0.00 0.00 0.00 85 1019.3
20260507141028 58 360 9.0 16.0 0.00 0.00 0.00 86 1019.4
20260507140928 58 360 9.0 16.0 0.00 0.00 0.00 86 1019.2
20260507140849 58 360 8.0 16.0 0.00 0.00 0.00 85 1019.1
20260507140748 58 360 8.0 16.0 0.00 0.00 0.00 85 1019.2
20260507140632 58 360 9.0 16.0 0.00 0.00 0.00 85 1019.0
20260507140533 58 360 10.0 16.0 0.00 0.00 0.00 85 1019.1
20260507140434 58 360 9.0 17.0 0.00 0.00 0.00 85 1019.2
20260507140355 58 360 8.0 17.0 0.00 0.00 0.00 86 1019.2
20260507140235 58 360 8.0 17.0 0.00 0.00 0.00 86 1019.3
20260507140135 58 360 7.0 17.0 0.00 0.00 0.00 86 1019.2
20260507140019 58 360 7.0 17.0 0.00 0.00 0.00 86 1019.3
20260507135941 58 360 7.0 17.0 0.00 0.00 0.00 86 1019.3
20260507135843 58 360 8.0 17.0 0.00 0.00 0.00 86 1019.3
20260507135722 58 360 8.0 17.0 0.00 0.00 0.00 85 1019.3
20260507135622 58 360 8.0 17.0 0.00 0.00 0.00 86 1019.3
20260507135543 58 360 7.0 17.0 0.00 0.00 0.00 86 1019.3
20260507135416 58 360 6.0 14.0 0.00 0.00 0.00 86 1019.3
20260507135317 58 360 7.0 14.0 0.00 0.00 0.00 86 1019.3
20260507135220 58 360 6.0 14.0 0.00 0.00 0.00 86 1019.3
20260507135120 58 360 7.0 14.0 0.00 0.00 0.00 86 1019.3
20260507135021 58 360 8.0 14.0 0.00 0.00 0.00 86 1019.4
20260507134942 58 360 8.0 14.0 0.00 0.00 0.00 86 1019.4
20260507134903 58 360 6.0 13.0 0.00 0.00 0.00 86 1019.5
20260507134715 58 360 7.0 13.0 0.00 0.00 0.00 86 1019.3
20260507134616 58 360 6.0 13.0 0.00 0.00 0.00 86 1019.4
20260507134521 58 360 6.0 13.0 0.00 0.00 0.00 86 1019.2
20260507134421 58 360 7.0 13.0 0.00 0.00 0.00 86 1019.2
20260507134342 58 360 7.0 13.0 0.00 0.00 0.00 86 1019.1
20260507134221 58 360 7.0 13.0 0.00 0.00 0.00 86 1019.1
20260507134141 58 360 7.0 13.0 0.00 0.00 0.00 86 1019.0
20260507134021 58 360 7.0 13.0 0.00 0.00 0.00 86 1019.0
20260507133924 58 360 7.0 13.0 0.00 0.00 0.00 86 1018.9
20260507133844 58 360 6.0 13.0 0.00 0.00 0.00 86 1018.9
20260507133727 58 360 6.0 11.0 0.00 0.00 0.00 86 1018.9
20260507133648 58 360 6.0 16.0 0.00 0.00 0.00 86 1018.9
20260507133548 58 360 6.0 16.0 0.00 0.00 0.00 86 1018.8
20260507133426 58 309 6.0 16.0 0.00 0.00 0.00 86 1018.9
20260507133327 58 360 6.0 16.0 0.00 0.00 0.00 86 1018.9
20260507133227 58 360 6.0 16.0 0.00 0.00 0.00 86 1018.9
20260507133127 58 360 6.0 16.0 0.00 0.00 0.00 86 1018.9
20260507133028 58 360 6.0 16.0 0.00 0.00 0.00 86 1018.9
20260507132932 58 360 7.0 16.0 0.00 0.00 0.00 86 1018.9
20260507132853 58 360 8.0 17.0 0.00 0.00 0.00 86 1018.8
20260507132733 58 360 8.0 17.0 0.00 0.00 0.00 86 1018.7
20260507132652 58 360 8.0 17.0 0.00 0.00 0.00 86 1018.8
20260507132532 58 360 8.0 17.0 0.00 0.00 0.00 86 1018.6
20260507132433 58 360 7.0 17.0 0.00 0.00 0.00 86 1018.7
20260507132334 58 360 8.0 17.0 0.00 0.00 0.00 87 1018.6
20260507132219 58 360 8.0 17.0 0.00 0.00 0.00 87 1018.5
20260507132139 58 360 9.0 17.0 0.00 0.00 0.00 86 1018.5
20260507132018 58 360 9.0 17.0 0.00 0.00 0.00 86 1018.5
20260507131919 58 360 9.0 17.0 0.00 0.00 0.00 87 1018.5
20260507131819 58 360 9.0 17.0 0.00 0.00 0.00 87 1018.5
20260507131721 58 360 9.0 19.0 0.00 0.00 0.00 87 1018.5
20260507131620 58 360 8.0 19.0 0.00 0.00 0.00 86 1018.6
20260507131546 58 360 8.0 19.0 0.00 0.00 0.00 86 1018.7
20260507131426 58 360 8.0 19.0 0.00 0.00 0.00 86 1018.7
20260507131326 58 360 8.0 19.0 0.00 0.00 0.00 86 1018.6
20260507131227 58 360 9.0 19.0 0.00 0.00 0.00 86 1018.6
20260507131126 58 360 9.0 19.0 0.00 0.00 0.00 86 1018.7
20260507131027 58 360 9.0 19.0 0.00 0.00 0.00 86 1018.6
20260507130927 58 360 8.0 16.0 0.00 0.00 0.00 86 1018.6
20260507130831 58 360 8.0 16.0 0.00 0.00 0.00 86 1018.6
20260507130733 58 360 8.0 16.0 0.00 0.00 0.00 86 1018.6
20260507130633 58 360 8.0 16.0 0.00 0.00 0.00 86 1018.6
20260507130532 58 360 8.0 15.0 0.00 0.00 0.00 86 1018.7
20260507130433 58 360 8.0 15.0 0.00 0.00 0.00 86 1018.7
20260507130335 58 360 9.0 19.0 0.00 0.00 0.00 86 1018.6
20260507130219 58 360 9.0 19.0 0.00 0.00 0.00 86 1018.6
20260507130119 58 360 10.0 19.0 0.00 0.00 0.00 86 1018.6
20260507130020 58 360 10.0 19.0 0.00 0.00 0.00 86 1018.7
20260507125920 58 360 11.0 19.0 0.00 0.00 0.00 86 1018.8
20260507125822 58 360 12.0 19.0 0.00 0.00 0.00 86 1018.8
20260507125723 58 360 11.0 19.0 0.00 0.00 0.00 86 1018.9
20260507125624 58 360 11.0 19.0 0.00 0.00 0.00 86 1019.0
20260507125528 58 360 10.0 19.0 0.00 0.00 0.00 86 1019.0
20260507125428 58 360 10.0 19.0 0.00 0.00 0.00 86 1019.1
20260507125329 58 360 8.0 17.0 0.00 0.00 0.00 86 1019.0
20260507125250 58 360 9.0 16.0 0.00 0.00 0.00 86 1019.0
20260507125130 58 360 9.0 16.0 0.00 0.00 0.00 86 1019.1
20260507125031 58 360 9.0 16.0 0.00 0.00 0.00 86 1019.1
20260507124931 58 360 10.0 16.0 0.00 0.00 0.00 86 1019.1
20260507124816 58 360 10.0 15.0 0.00 0.00 0.00 86 1019.0
20260507124716 58 360 10.0 15.0 0.00 0.00 0.00 86 1019.1
20260507124617 58 360 10.0 15.0 0.00 0.00 0.00 86 1018.9
20260507124516 58 360 9.0 14.0 0.00 0.00 0.00 86 1018.8
20260507124437 58 360 9.0 14.0 0.00 0.00 0.00 86 1018.7
20260507124337 58 360 9.0 14.0 0.00 0.00 0.00 86 1018.7
20260507124216 58 360 9.0 14.0 0.00 0.00 0.00 86 1018.6
20260507124121 58 360 8.0 14.0 0.00 0.00 0.00 86 1018.6
20260507124021 58 360 7.0 14.0 0.00 0.00 0.00 86 1018.5
20260507123942 58 360 7.0 14.0 0.00 0.00 0.00 86 1018.5
20260507123821 58 360 7.0 15.0 0.00 0.00 0.00 86 1018.5
20260507123742 58 360 8.0 15.0 0.00 0.00 0.00 86 1018.5
20260507123616 58 360 9.0 15.0 0.00 0.00 0.00 86 1018.4
20260507123516 58 360 9.0 15.0 0.00 0.00 0.00 86 1018.5
20260507123421 58 360 9.0 15.0 0.00 0.00 0.00 86 1018.5
20260507123322 58 360 9.0 15.0 0.00 0.00 0.00 86 1018.4
20260507123221 58 360 9.0 15.0 0.00 0.00 0.00 86 1018.4
20260507123142 58 360 10.0 15.0 0.00 0.00 0.00 86 1018.4
20260507123016 58 360 10.0 15.0 0.00 0.00 0.00 86 1018.4
20260507122917 58 360 9.0 14.0 0.00 0.00 0.00 86 1018.4
20260507122823 58 360 9.0 14.0 0.00 0.00 0.00 86 1018.4
20260507122742 58 360 8.0 14.0 0.00 0.00 0.00 86 1018.4
20260507122622 58 360 8.0 14.0 0.00 0.00 0.00 86 1018.4
20260507122523 58 360 7.0 14.0 0.00 0.00 0.00 86 1018.4
20260507122422 58 360 7.0 14.0 0.00 0.00 0.00 86 1018.4
20260507122324 58 360 6.0 14.0 0.00 0.00 0.00 85 1018.5
20260507122224 58 26 7.0 14.0 0.00 0.00 0.00 86 1018.6
20260507122130 58 360 7.0 14.0 0.00 0.00 0.00 86 1018.6
20260507122031 58 360 8.0 16.0 0.00 0.00 0.00 86 1018.6
20260507121930 58 360 7.0 16.0 0.00 0.00 0.00 86 1018.6
20260507121830 58 360 8.0 16.0 0.00 0.00 0.00 86 1018.6
20260507121732 58 360 8.0 16.0 0.00 0.00 0.00 86 1018.5
20260507121632 58 360 8.0 16.0 0.00 0.00 0.00 86 1018.5
20260507121532 58 360 7.0 16.0 0.00 0.00 0.00 86 1018.5
20260507121416 58 360 8.0 16.0 0.00 0.00 0.00 86 1018.5
20260507121316 58 360 8.0 16.0 0.00 0.00 0.00 86 1018.4
20260507121216 58 360 8.0 16.0 0.00 0.00 0.00 86 1018.3
20260507121117 58 360 7.0 16.0 0.00 0.00 0.00 86 1018.3
20260507121018 58 360 7.0 16.0 0.00 0.00 0.00 86 1018.2
20260507120919 58 360 7.0 16.0 0.00 0.00 0.00 86 1018.2
20260507120838 58 360 7.0 16.0 0.00 0.00 0.00 86 1018.2
20260507120722 58 360 8.0 16.0 0.00 0.00 0.00 86 1018.1
20260507120622 58 360 8.0 16.0 0.00 0.00 0.00 86 1018.2
20260507120543 58 360 7.0 16.0 0.00 0.00 0.00 86 1018.1
20260507120423 58 360 7.0 16.0 0.00 0.00 0.00 86 1018.0
20260507120343 58 360 8.0 17.0 0.00 0.00 0.00 86 1018.0
20260507120243 58 360 8.0 17.0 0.00 0.00 0.00 86 1018.0
20260507120203 58 360 9.0 17.0 0.00 0.00 0.00 86 1018.0
20260507120103 58 360 10.0 17.0 0.00 0.00 0.00 86 1018.0
20260507115916 58 360 10.0 21.0 0.00 0.00 0.00 86 1018.0
20260507115842 58 360 10.0 21.0 0.00 0.00 0.00 86 1018.0
20260507115721 58 360 9.0 21.0 0.00 0.00 0.00 86 1018.0
20260507115622 58 360 9.0 21.0 0.00 0.00 0.00 86 1018.0
20260507115522 58 360 8.0 21.0 0.00 0.00 0.00 86 1017.9
20260507115443 58 360 8.0 21.0 0.00 0.00 0.00 86 1017.9
20260507115322 58 360 8.0 21.0 0.00 0.00 0.00 86 1017.9
20260507115222 58 360 9.0 21.0 0.00 0.00 0.00 86 1017.9
20260507115123 58 360 10.0 21.0 0.00 0.00 0.00 86 1017.9
20260507115028 58 360 10.0 21.0 0.00 0.00 0.00 85 1017.9
20260507114927 58 360 10.0 21.0 0.00 0.00 0.00 85 1017.9
20260507114828 58 360 10.0 21.0 0.00 0.00 0.00 85 1017.9
20260507114727 58 360 9.0 21.0 0.00 0.00 0.00 85 1017.8
20260507114627 58 360 8.0 14.0 0.00 0.00 0.00 85 1017.9
20260507114527 58 360 7.0 15.0 0.00 0.00 0.00 85 1017.9
20260507114427 58 360 6.0 15.0 0.00 0.00 0.00 85 1018.0
20260507114333 58 360 6.0 15.0 0.00 0.00 0.00 85 1018.0
20260507114255 58 360 6.0 15.0 0.00 0.00 0.00 85 1018.0
20260507114133 58 360 8.0 16.0 0.00 0.00 0.00 85 1018.1
20260507114034 58 360 9.0 16.0 0.00 0.00 0.00 85 1018.1
20260507113934 58 360 9.0 16.0 0.00 0.00 0.00 85 1018.1
20260507113855 58 360 8.0 16.0 0.00 0.00 0.00 85 1018.2
20260507113734 58 360 9.0 16.0 0.00 0.00 0.00 85 1018.1
20260507113618 58 360 9.0 17.0 0.00 0.00 0.00 85 1018.0
20260507113539 58 360 9.0 17.0 0.00 0.00 0.00 85 1018.0
20260507113419 58 360 10.0 18.0 0.00 0.00 0.00 85 1018.0
20260507113319 58 360 9.0 18.0 0.00 0.00 0.00 85 1018.0
20260507113219 58 360 9.0 18.0 0.00 0.00 0.00 85 1018.0
20260507113120 58 360 9.0 18.0 0.00 0.00 0.00 85 1018.0
20260507113023 58 360 9.0 18.0 0.00 0.00 0.00 85 1017.9
20260507112926 58 360 8.0 18.0 0.00 0.00 0.00 85 1017.9
20260507112826 59 360 8.0 18.0 0.00 0.00 0.00 85 1017.9
20260507112728 58 360 7.0 18.0 0.00 0.00 0.00 85 1017.8
20260507112627 59 360 7.0 18.0 0.00 0.00 0.00 85 1017.7
20260507112527 59 360 9.0 18.0 0.00 0.00 0.00 85 1017.7
20260507112428 59 360 9.0 18.0 0.00 0.00 0.00 85 1017.7
20260507112328 59 360 10.0 18.0 0.00 0.00 0.00 85 1017.7
20260507112252 59 360 10.0 18.0 0.00 0.00 0.00 85 1017.7
20260507112132 59 360 10.0 17.0 0.00 0.00 0.00 85 1017.7
20260507112033 59 360 10.0 16.0 0.00 0.00 0.00 85 1017.6
20260507111954 59 360 10.0 16.0 0.00 0.00 0.00 85 1017.7
20260507111835 59 360 9.0 15.0 0.00 0.00 0.00 85 1017.7
20260507111735 59 360 9.0 15.0 0.00 0.00 0.00 85 1017.7
20260507111634 59 360 9.0 15.0 0.00 0.00 0.00 85 1017.7
20260507111519 59 360 9.0 13.0 0.00 0.00 0.00 85 1017.6
20260507111420 59 360 8.0 13.0 0.00 0.00 0.00 85 1017.7
20260507111340 59 360 8.0 13.0 0.00 0.00 0.00 85 1017.6
20260507111240 59 360 8.0 12.0 0.00 0.00 0.00 85 1017.7
20260507111119 59 360 8.0 12.0 0.00 0.00 0.00 85 1017.6
20260507111020 59 360 8.0 17.0 0.00 0.00 0.00 85 1017.6
20260507110921 59 360 7.0 17.0 0.00 0.00 0.00 85 1017.6
20260507110826 59 360 7.0 17.0 0.00 0.00 0.00 85 1017.6
20260507110747 59 360 7.0 17.0 0.00 0.00 0.00 85 1017.6
20260507110625 59 360 8.0 17.0 0.00 0.00 0.00 85 1017.6
20260507110546 58 360 8.0 17.0 0.00 0.00 0.00 85 1017.6
20260507110426 59 360 8.0 17.0 0.00 0.00 0.00 85 1017.6
20260507110348 58 360 8.0 17.0 0.00 0.00 0.00 85 1017.6
20260507110227 58 360 8.0 17.0 0.00 0.00 0.00 85 1017.6
20260507110148 58 360 8.0 14.0 0.00 0.00 0.00 85 1017.6
20260507110027 58 360 7.0 14.0 0.00 0.00 0.00 85 1017.6
20260507105932 58 360 6.0 14.0 0.00 0.00 0.00 85 1017.6
20260507105853 58 360 6.0 14.0 0.00 0.00 0.00 85 1017.6
20260507105734 58 360 7.0 14.0 0.00 0.00 0.00 85 1017.6
20260507105653 59 360 7.0 20.0 0.00 0.00 0.00 85 1017.6
20260507105532 59 360 7.0 20.0 0.00 0.00 0.00 85 1017.6
20260507105434 58 360 8.0 20.0 0.00 0.00 0.00 85 1017.5
20260507105316 58 360 10.0 20.0 0.00 0.00 0.00 85 1017.5
20260507105219 58 360 10.0 20.0 0.00 0.00 0.00 85 1017.5
20260507105120 59 360 10.0 20.0 0.00 0.00 0.00 85 1017.5
20260507105040 59 360 10.0 20.0 0.00 0.00 0.00 85 1017.5
20260507104920 59 360 10.0 20.0 0.00 0.00 0.00 85 1017.5
20260507104819 59 23 9.0 20.0 0.00 0.00 0.00 85 1017.5
20260507104720 59 360 8.0 16.0 0.00 0.00 0.00 85 1017.6
20260507104641 59 360 8.0 16.0 0.00 0.00 0.00 85 1017.5
20260507104540 59 360 9.0 18.0 0.00 0.00 0.00 85 1017.6
20260507104424 59 360 9.0 18.0 0.00 0.00 0.00 85 1017.6
20260507104325 59 360 9.0 18.0 0.00 0.00 0.00 85 1017.6
20260507104225 59 360 10.0 18.0 0.00 0.00 0.00 85 1017.6
20260507104126 59 360 11.0 18.0 0.00 0.00 0.00 85 1017.6
20260507104026 59 360 11.0 18.0 0.00 0.00 0.00 85 1017.6
20260507103926 59 360 11.0 18.0 0.00 0.00 0.00 85 1017.6
20260507103831 59 360 11.0 18.0 0.00 0.00 0.00 85 1017.6
20260507103731 59 360 11.0 18.0 0.00 0.00 0.00 85 1017.6
20260507103631 59 360 10.0 18.0 0.00 0.00 0.00 85 1017.7
20260507103531 59 360 11.0 18.0 0.00 0.00 0.00 85 1017.7
20260507103432 59 360 11.0 18.0 0.00 0.00 0.00 85 1017.7
20260507103332 59 360 11.0 18.0 0.00 0.00 0.00 85 1017.7
20260507103216 59 360 10.0 15.0 0.00 0.00 0.00 84 1017.6
20260507103118 59 360 9.0 15.0 0.00 0.00 0.00 84 1017.6
20260507103018 59 360 8.0 15.0 0.00 0.00 0.00 84 1017.5
20260507102918 59 360 7.0 14.0 0.00 0.00 0.00 84 1017.7
20260507102819 59 360 7.0 14.0 0.00 0.00 0.00 84 1017.6
20260507102718 59 360 7.0 14.0 0.00 0.00 0.00 84 1017.6
20260507102619 59 360 7.0 14.0 0.00 0.00 0.00 84 1017.6
20260507102523 59 360 8.0 14.0 0.00 0.00 0.00 84 1017.4
20260507102424 59 360 8.0 14.0 0.00 0.00 0.00 84 1017.4
20260507102323 59 360 9.0 14.0 0.00 0.00 0.00 84 1017.3
20260507102245 59 360 8.0 14.0 0.00 0.00 0.00 84 1017.3
20260507102123 59 360 8.0 14.0 0.00 0.00 0.00 84 1017.2
20260507102024 59 360 7.0 13.0 0.00 0.00 0.00 84 1017.2
20260507101925 59 360 6.0 13.0 0.00 0.00 0.00 84 1017.1
20260507101828 59 360 5.0 10.0 0.00 0.00 0.00 85 1017.1
20260507101749 59 360 5.0 10.0 0.00 0.00 0.00 85 1017.1
20260507101629 59 360 5.0 10.0 0.00 0.00 0.00 84 1017.0
20260507101530 59 360 5.0 10.0 0.00 0.00 0.00 84 1016.9
20260507101430 59 360 5.0 11.0 0.00 0.00 0.00 84 1017.0
20260507101350 59 360 5.0 11.0 0.00 0.00 0.00 84 1017.0
20260507101231 59 360 5.0 11.0 0.00 0.00 0.00 84 1017.1
20260507101135 59 360 6.0 11.0 0.00 0.00 0.00 84 1017.0
20260507101036 59 360 6.0 11.0 0.00 0.00 0.00 84 1017.1
20260507100956 59 360 6.0 11.0 0.00 0.00 0.00 84 1017.2
20260507100855 59 360 6.0 11.0 0.00 0.00 0.00 84 1017.2
20260507100735 59 360 5.0 13.0 0.00 0.00 0.00 84 1017.3
20260507100636 59 360 5.0 13.0 0.00 0.00 0.00 84 1017.3
20260507100556 59 360 4.0 13.0 0.00 0.00 0.00 84 1017.3
20260507100435 59 360 4.0 13.0 0.00 0.00 0.00 84 1017.2
20260507100320 59 360 5.0 13.0 0.00 0.00 0.00 84 1017.0
20260507100220 59 360 5.0 13.0 0.00 0.00 0.00 84 1017.0
20260507100122 59 360 6.0 15.0 0.00 0.00 0.00 84 1017.0
20260507100042 59 360 7.0 15.0 0.00 0.00 0.00 84 1017.0
20260507095921 59 360 8.0 15.0 0.00 0.00 0.00 84 1017.0
20260507095824 59 360 7.0 15.0 0.00 0.00 0.00 84 1017.1
20260507095723 59 360 8.0 15.0 0.00 0.00 0.00 84 1017.1
20260507095627 59 360 8.0 15.0 0.00 0.00 0.00 84 1017.1
20260507095528 59 360 8.0 15.0 0.00 0.00 0.00 84 1017.1
20260507095430 59 360 8.0 15.0 0.00 0.00 0.00 84 1017.1
20260507095331 59 360 8.0 15.0 0.00 0.00 0.00 84 1017.0
20260507095231 59 360 8.0 15.0 0.00 0.00 0.00 84 1016.9
20260507095152 59 360 7.0 15.0 0.00 0.00 0.00 84 1016.9
20260507095031 59 360 8.0 15.0 0.00 0.00 0.00 84 1016.8
20260507094916 59 360 9.0 15.0 0.00 0.00 0.00 84 1016.7
20260507094817 59 360 9.0 15.0 0.00 0.00 0.00 84 1016.8
20260507094717 59 360 9.0 15.0 0.00 0.00 0.00 84 1017.0
20260507094617 59 360 8.0 15.0 0.00 0.00 0.00 84 1017.0
20260507094538 59 360 6.0 15.0 0.00 0.00 0.00 84 1017.1
20260507094419 59 360 6.0 15.0 0.00 0.00 0.00 84 1017.1
20260507094318 60 360 5.0 12.0 0.00 0.00 0.00 84 1017.2
20260507094223 59 360 5.0 12.0 0.00 0.00 0.00 84 1017.2
20260507094123 59 360 5.0 12.0 0.00 0.00 0.00 84 1017.2
20260507094024 59 360 5.0 12.0 0.00 0.00 0.00 84 1017.1
20260507093924 60 360 5.0 13.0 0.00 0.00 0.00 84 1017.0
20260507093825 59 360 5.0 14.0 0.00 0.00 0.00 84 1016.9
20260507093725 59 360 6.0 14.0 0.00 0.00 0.00 84 1016.9
20260507093629 60 360 6.0 14.0 0.00 0.00 0.00 84 1016.9
20260507093550 60 360 6.0 14.0 0.00 0.00 0.00 83 1016.9
20260507093450 60 360 8.0 14.0 0.00 0.00 0.00 83 1016.9
20260507093330 60 360 8.0 14.0 0.00 0.00 0.00 83 1016.9
20260507093231 60 360 7.0 14.0 0.00 0.00 0.00 83 1017.0
20260507093131 60 360 8.0 14.0 0.00 0.00 0.00 83 1017.0
20260507093032 60 360 8.0 14.0 0.00 0.00 0.00 83 1017.1
20260507092916 60 360 7.0 14.0 0.00 0.00 0.00 83 1017.0
20260507092818 60 360 8.0 13.0 0.00 0.00 0.00 83 1016.9
20260507092717 60 360 8.0 13.0 0.00 0.00 0.00 83 1016.9
20260507092618 60 360 8.0 12.0 0.00 0.00 0.00 83 1016.9
20260507092539 60 360 7.0 11.0 0.00 0.00 0.00 83 1016.9
20260507092419 60 360 7.0 11.0 0.00 0.00 0.00 83 1017.0
20260507092319 60 360 6.0 9.0 0.00 0.00 0.00 83 1017.0
20260507092225 60 360 6.0 9.0 0.00 0.00 0.00 83 1017.0
20260507092126 60 360 6.0 9.0 0.00 0.00 0.00 83 1017.0
20260507092026 60 360 5.0 9.0 0.00 0.00 0.00 83 1016.9
20260507091926 60 360 5.0 9.0 0.00 0.00 0.00 83 1016.9
20260507091827 60 360 5.0 9.0 0.00 0.00 0.00 83 1016.9
20260507091728 60 360 4.0 9.0 0.00 0.00 0.00 83 1017.0
20260507091629 60 360 4.0 9.0 0.00 0.00 0.00 83 1016.9
20260507091534 60 360 4.0 10.0 0.00 0.00 0.00 83 1017.1
20260507091434 60 360 4.0 10.0 0.00 0.00 0.00 83 1017.1
20260507091335 60 360 4.0 10.0 0.00 0.00 0.00 83 1017.1
20260507091255 60 360 5.0 10.0 0.00 0.00 0.00 83 1017.1
20260507091156 60 360 5.0 10.0 0.00 0.00 0.00 83 1017.1
20260507091035 60 360 5.0 10.0 0.00 0.00 0.00 83 1017.1
20260507090956 60 360 6.0 10.0 0.00 0.00 0.00 83 1017.1
20260507090819 60 360 5.0 9.0 0.00 0.00 0.00 83 1017.0
20260507090720 60 360 5.0 9.0 0.00 0.00 0.00 83 1017.0
20260507090620 60 360 4.0 9.0 0.00 0.00 0.00 83 1017.0
20260507090521 60 360 4.0 8.0 0.00 0.00 0.00 83 1016.9
20260507090422 60 360 4.0 8.0 0.00 0.00 0.00 83 1016.9
20260507090321 60 360 3.0 8.0 0.00 0.00 0.00 83 1016.9
20260507090222 60 360 3.0 8.0 0.00 0.00 0.00 83 1016.8
20260507090127 60 360 3.0 8.0 0.00 0.00 0.00 83 1016.8
20260507090027 60 360 3.0 8.0 0.00 0.00 0.00 83 1016.8
20260507085948 60 360 3.0 8.0 0.00 0.00 0.00 83 1016.7
20260507085827 60 360 3.0 8.0 0.00 0.00 0.00 83 1016.6
20260507085728 60 360 4.0 8.0 0.00 0.00 0.00 83 1016.6
20260507085627 60 360 4.0 8.0 0.00 0.00 0.00 83 1016.6
20260507085527 60 360 4.0 8.0 0.00 0.00 0.00 83 1016.7
20260507085431 60 360 4.0 8.0 0.00 0.00 0.00 83 1016.7
20260507085332 60 360 4.0 8.0 0.00 0.00 0.00 83 1016.7
20260507085251 60 360 4.0 8.0 0.00 0.00 0.00 83 1016.7
20260507085151 60 360 3.0 8.0 0.00 0.00 0.00 83 1016.7
20260507085050 60 360 3.0 8.0 0.00 0.00 0.00 83 1016.7
20260507084931 60 360 3.0 5.0 0.00 0.00 0.00 83 1016.7
20260507084832 60 360 3.0 5.0 0.00 0.00 0.00 83 1016.6
20260507084733 60 360 3.0 5.0 0.00 0.00 0.00 83 1016.7
20260507084618 60 360 2.0 4.0 0.00 0.00 0.00 83 1016.7
20260507084518 60 360 2.0 4.0 0.00 0.00 0.00 83 1016.8
20260507084438 60 360 2.0 4.0 0.00 0.00 0.00 83 1016.8
20260507084318 60 360 2.0 4.0 0.00 0.00 0.00 83 1016.8
20260507084219 60 360 2.0 5.0 0.00 0.00 0.00 83 1016.8
20260507084140 60 57 2.0 5.0 0.00 0.00 0.00 83 1016.7
20260507084019 60 360 2.0 9.0 0.00 0.00 0.00 83 1016.6
20260507083923 60 360 3.0 9.0 0.00 0.00 0.00 83 1016.5
20260507083824 60 360 3.0 9.0 0.00 0.00 0.00 83 1016.5
20260507083725 60 360 3.0 9.0 0.00 0.00 0.00 83 1016.5
20260507083646 60 360 3.0 9.0 0.00 0.00 0.00 83 1016.5
20260507083525 60 360 3.0 9.0 0.00 0.00 0.00 83 1016.6
20260507083446 60 360 3.0 9.0 0.00 0.00 0.00 83 1016.5
20260507083324 60 360 3.0 9.0 0.00 0.00 0.00 83 1016.6
20260507083244 60 360 4.0 9.0 0.00 0.00 0.00 83 1016.7
20260507083128 60 360 4.0 8.0 0.00 0.00 0.00 83 1016.7
20260507083029 60 360 4.0 8.0 0.00 0.00 0.00 83 1016.6
20260507082930 60 360 4.0 8.0 0.00 0.00 0.00 83 1016.7
20260507082830 60 360 3.0 8.0 0.00 0.00 0.00 83 1016.7
20260507082732 60 360 2.0 8.0 0.00 0.00 0.00 83 1016.7
20260507082631 60 360 2.0 5.0 0.00 0.00 0.00 83 1016.6
20260507082516 60 360 2.0 5.0 0.00 0.00 0.00 82 1016.7
20260507082416 60 360 2.0 5.0 0.00 0.00 0.00 82 1016.7
20260507082317 60 360 2.0 5.0 0.00 0.00 0.00 82 1016.7
20260507082217 60 360 2.0 13.0 0.00 0.00 0.00 82 1016.6
20260507082118 60 360 2.0 13.0 0.00 0.00 0.00 82 1016.6
20260507082017 60 360 3.0 13.0 0.00 0.00 0.00 82 1016.7
20260507081918 60 360 3.0 13.0 0.00 0.00 0.00 82 1016.6
20260507081823 60 360 3.0 13.0 0.00 0.00 0.00 82 1016.7
20260507081744 60 360 3.0 13.0 0.00 0.00 0.00 82 1016.7
20260507081643 60 65 4.0 13.0 0.00 0.00 0.00 82 1016.8
20260507081543 60 360 3.0 13.0 0.00 0.00 0.00 82 1016.8
20260507081422 60 360 4.0 13.0 0.00 0.00 0.00 82 1016.8
20260507081322 60 360 5.0 13.0 0.00 0.00 0.00 82 1016.6
20260507081244 60 360 6.0 13.0 0.00 0.00 0.00 82 1016.3
20260507081122 60 360 6.0 13.0 0.00 0.00 0.00 82 1016.1
20260507081043 60 360 7.0 13.0 0.00 0.00 0.00 82 1016.1
20260507080927 60 360 7.0 13.0 0.00 0.00 0.00 82 1016.1
20260507080827 60 360 7.0 13.0 0.00 0.00 0.00 82 1016.2
20260507080729 60 360 7.0 11.0 0.00 0.00 0.00 82 1016.1
20260507080629 60 360 7.0 11.0 0.00 0.00 0.00 82 1016.2
20260507080530 60 360 6.0 10.0 0.00 0.00 0.00 82 1016.3
20260507080432 60 360 5.0 10.0 0.00 0.00 0.00 82 1016.4
20260507080331 60 360 4.0 10.0 0.00 0.00 0.00 82 1016.3
20260507080235 60 360 4.0 10.0 0.00 0.00 0.00 82 1016.4
20260507080135 60 360 3.0 10.0 0.00 0.00 0.00 82 1016.3
20260507080035 60 360 3.0 10.0 0.00 0.00 0.00 82 1016.2
20260507075916 60 61 5.0 10.0 0.00 0.00 0.00 82 1016.1
20260507075817 60 360 5.0 10.0 0.00 0.00 0.00 82 1016.1
20260507075718 60 360 5.0 10.0 0.00 0.00 0.00 82 1016.1
20260507075622 60 360 5.0 10.0 0.00 0.00 0.00 82 1016.0
20260507075522 60 360 5.0 10.0 0.00 0.00 0.00 82 1016.0
20260507075442 60 360 5.0 9.0 0.00 0.00 0.00 82 1016.1
20260507075322 60 360 4.0 9.0 0.00 0.00 0.00 82 1016.1
20260507075223 60 360 5.0 9.0 0.00 0.00 0.00 82 1016.2
20260507075124 60 360 5.0 9.0 0.00 0.00 0.00 82 1016.3
20260507075024 60 360 5.0 13.0 0.00 0.00 0.00 82 1016.5
20260507074930 60 360 5.0 13.0 0.00 0.00 0.00 82 1016.5
20260507074830 60 360 5.0 13.0 0.00 0.00 0.00 82 1016.6
20260507074751 60 360 4.0 13.0 0.00 0.00 0.00 82 1016.7
20260507074631 60 360 4.0 13.0 0.00 0.00 0.00 82 1016.7
20260507074532 60 360 4.0 13.0 0.00 0.00 0.00 82 1016.6
20260507074431 60 360 5.0 13.0 0.00 0.00 0.00 81 1016.5
20260507074332 60 360 5.0 13.0 0.00 0.00 0.00 81 1016.3
20260507074217 60 360 5.0 13.0 0.00 0.00 0.00 81 1016.1
20260507074118 60 360 6.0 13.0 0.00 0.00 0.00 81 1016.1
20260507074018 60 360 6.0 13.0 0.00 0.00 0.00 81 1016.0
20260507073920 60 360 7.0 13.0 0.00 0.00 0.00 81 1016.1
20260507073840 60 360 7.0 13.0 0.00 0.00 0.00 81 1015.9
20260507073721 60 360 7.0 13.0 0.00 0.00 0.00 81 1016.0
20260507073622 60 360 6.0 10.0 0.00 0.00 0.00 81 1016.0
20260507073547 60 360 6.0 10.0 0.00 0.00 0.00 81 1016.0
20260507073426 60 360 5.0 10.0 0.00 0.00 0.00 81 1015.9
20260507073327 60 360 5.0 11.0 0.00 0.00 0.00 81 1015.9
20260507073247 60 360 5.0 11.0 0.00 0.00 0.00 81 1015.8
20260507073125 60 360 5.0 11.0 0.00 0.00 0.00 81 1015.9
20260507073027 60 360 5.0 11.0 0.00 0.00 0.00 81 1015.9
20260507072947 60 360 6.0 11.0 0.00 0.00 0.00 81 1016.0
20260507072827 60 360 6.0 11.0 0.00 0.00 0.00 81 1016.0
20260507072732 60 360 6.0 11.0 0.00 0.00 0.00 81 1016.1
20260507072632 60 360 6.0 11.0 0.00 0.00 0.00 81 1016.1
20260507072553 60 360 5.0 11.0 0.00 0.00 0.00 81 1016.1
20260507072433 60 360 5.0 11.0 0.00 0.00 0.00 81 1016.1
20260507072334 60 360 5.0 11.0 0.00 0.00 0.00 81 1016.3
20260507072216 60 360 5.0 11.0 0.00 0.00 0.00 81 1016.3
20260507072120 61 360 5.0 11.0 0.00 0.00 0.00 81 1016.4
20260507072022 60 360 6.0 11.0 0.00 0.00 0.00 81 1016.4
20260507071923 60 360 6.0 11.0 0.00 0.00 0.00 81 1016.5
20260507071843 60 360 5.0 11.0 0.00 0.00 0.00 81 1016.4
20260507071723 61 360 5.0 11.0 0.00 0.00 0.00 81 1016.3
20260507071623 61 67 5.0 11.0 0.00 0.00 0.00 81 1016.4
20260507071524 60 360 5.0 11.0 0.00 0.00 0.00 81 1016.3
20260507071429 60 360 5.0 11.0 0.00 0.00 0.00 81 1016.3
20260507071330 61 360 4.0 11.0 0.00 0.00 0.00 81 1016.4
20260507071231 61 360 5.0 13.0 0.00 0.00 0.00 81 1016.3
20260507071131 61 360 5.0 13.0 0.00 0.00 0.00 81 1016.2
20260507071032 61 360 6.0 13.0 0.00 0.00 0.00 81 1016.2
20260507070932 61 360 6.0 13.0 0.00 0.00 0.00 81 1016.2
20260507070817 61 360 6.0 13.0 0.00 0.00 0.00 81 1016.0
20260507070717 61 360 6.0 13.0 0.00 0.00 0.00 81 1016.0
20260507070638 61 360 6.0 13.0 0.00 0.00 0.00 81 1016.0
20260507070537 61 360 6.0 13.0 0.00 0.00 0.00 81 1016.0
20260507070435 61 360 6.0 13.0 0.00 0.00 0.00 81 1015.9
20260507070357 61 360 6.0 10.0 0.00 0.00 0.00 81 1015.9
20260507070235 61 360 5.0 10.0 0.00 0.00 0.00 81 1016.0
20260507070153 61 360 6.0 10.0 0.00 0.00 0.00 81 1016.0
20260507070033 61 360 5.0 9.0 0.00 0.00 0.00 81 1016.0
20260507065932 61 360 5.0 9.0 0.00 0.00 0.00 81 1016.2
20260507065856 61 360 4.0 9.0 0.00 0.00 0.00 81 1016.4
20260507065733 61 360 3.0 9.0 0.00 0.00 0.00 81 1016.5
20260507065650 61 60 3.0 6.0 0.00 0.00 0.00 81 1016.6
20260507065528 61 47 2.0 6.0 0.00 0.00 0.00 81 1016.6
20260507065427 61 360 2.0 4.0 0.00 0.00 0.00 81 1016.7
20260507065327 61 360 2.0 4.0 0.00 0.00 0.00 81 1016.5
20260507065245 61 360 2.0 4.0 0.00 0.00 0.00 81 1016.4
20260507065122 61 360 2.0 4.0 0.00 0.00 0.00 81 1016.4
20260507065022 61 360 2.0 6.0 0.00 0.00 0.00 81 1016.4
20260507064927 61 360 2.0 8.0 0.00 0.00 0.00 81 1016.4
20260507064827 61 360 3.0 8.0 0.00 0.00 0.00 81 1016.3
20260507064727 61 360 3.0 8.0 0.00 0.00 0.00 81 1016.4
20260507064648 61 360 2.0 8.0 0.00 0.00 0.00 81 1016.3
20260507064527 61 360 3.0 8.0 0.00 0.00 0.00 81 1016.3
20260507064427 61 360 3.0 8.0 0.00 0.00 0.00 81 1016.3
20260507064327 61 360 3.0 9.0 0.00 0.00 0.00 81 1016.4
20260507064232 61 76 3.0 9.0 0.00 0.00 0.00 81 1016.4
20260507064133 61 360 3.0 9.0 0.00 0.00 0.00 81 1016.4
20260507064033 61 360 4.0 9.0 0.00 0.00 0.00 81 1016.3
20260507063933 61 360 4.0 9.0 0.00 0.00 0.00 81 1016.4
20260507063833 61 360 4.0 13.0 0.00 0.00 0.00 81 1016.3
20260507063734 61 360 4.0 13.0 0.00 0.00 0.00 81 1016.3
20260507063618 61 66 4.0 13.0 0.00 0.00 0.00 81 1016.2
20260507063518 61 360 5.0 13.0 0.00 0.00 0.00 81 1016.2
20260507063419 61 360 5.0 13.0 0.00 0.00 0.00 81 1016.1
20260507063339 61 360 6.0 13.0 0.00 0.00 0.00 81 1016.2
20260507063219 61 360 6.0 13.0 0.00 0.00 0.00 81 1016.1
20260507063119 61 360 6.0 13.0 0.00 0.00 0.00 81 1016.2
20260507063019 61 360 5.0 12.0 0.00 0.00 0.00 81 1016.1
20260507062924 61 360 4.0 11.0 0.00 0.00 0.00 81 1016.1
20260507062845 61 360 5.0 11.0 0.00 0.00 0.00 81 1016.1
20260507062745 61 360 4.0 11.0 0.00 0.00 0.00 81 1016.0
20260507062624 61 360 4.0 11.0 0.00 0.00 0.00 81 1016.0
20260507062525 61 360 5.0 11.0 0.00 0.00 0.00 81 1015.9
20260507062425 61 360 5.0 11.0 0.00 0.00 0.00 81 1015.9
20260507062325 61 360 6.0 11.0 0.00 0.00 0.00 81 1016.0
20260507062226 61 360 6.0 11.0 0.00 0.00 0.00 81 1016.0
20260507062131 61 360 7.0 11.0 0.00 0.00 0.00 81 1016.0
20260507062052 61 360 7.0 11.0 0.00 0.00 0.00 81 1015.8
20260507061932 61 360 6.0 11.0 0.00 0.00 0.00 81 1015.7
20260507061833 61 360 6.0 11.0 0.00 0.00 0.00 81 1015.6
20260507061735 61 360 6.0 11.0 0.00 0.00 0.00 81 1015.5
20260507061655 61 360 5.0 10.0 0.00 0.00 0.00 81 1015.5
20260507061534 61 360 5.0 10.0 0.00 0.00 0.00 81 1015.6
20260507061418 61 360 5.0 9.0 0.00 0.00 0.00 81 1015.9
20260507061319 61 360 4.0 9.0 0.00 0.00 0.00 81 1015.9
20260507061219 61 360 4.0 9.0 0.00 0.00 0.00 81 1016.0
20260507061119 61 360 4.0 9.0 0.00 0.00 0.00 81 1016.1
20260507061019 61 360 3.0 8.0 0.00 0.00 0.00 81 1016.1
20260507060920 61 360 3.0 8.0 0.00 0.00 0.00 81 1016.2
20260507060825 61 360 3.0 8.0 0.00 0.00 0.00 81 1016.2
20260507060745 61 360 3.0 8.0 0.00 0.00 0.00 81 1016.4
20260507060624 61 360 3.0 8.0 0.00 0.00 0.00 81 1016.3
20260507060525 61 360 3.0 8.0 0.00 0.00 0.00 81 1016.3
20260507060425 61 360 4.0 8.0 0.00 0.00 0.00 81 1016.3
20260507060326 61 360 3.0 8.0 0.00 0.00 0.00 81 1016.3
20260507060227 61 13 3.0 9.0 0.00 0.00 0.00 81 1016.4
20260507060130 61 360 3.0 9.0 0.00 0.00 0.00 81 1016.3
20260507060051 61 360 3.0 9.0 0.00 0.00 0.00 81 1016.3
20260507055930 61 360 3.0 9.0 0.00 0.00 0.00 81 1016.3
20260507055830 61 360 4.0 9.0 0.00 0.00 0.00 81 1016.2
20260507055732 61 360 4.0 9.0 0.00 0.00 0.00 81 1016.1
20260507055649 61 360 4.0 9.0 0.00 0.00 0.00 81 1016.0
20260507055529 61 360 4.0 9.0 0.00 0.00 0.00 80 1016.0
20260507055429 61 360 5.0 9.0 0.00 0.00 0.00 80 1015.9
20260507055334 61 360 5.0 9.0 0.00 0.00 0.00 80 1015.9
20260507055234 61 360 5.0 9.0 0.00 0.00 0.00 80 1015.8
20260507055134 61 360 5.0 9.0 0.00 0.00 0.00 80 1015.8
20260507055034 61 360 4.0 9.0 0.00 0.00 0.00 80 1015.9
20260507054935 61 360 4.0 9.0 0.00 0.00 0.00 80 1015.9
20260507054856 61 360 4.0 9.0 0.00 0.00 0.00 80 1016.0
20260507054720 61 360 4.0 9.0 0.00 0.00 0.00 80 1016.0
20260507054620 61 360 4.0 9.0 0.00 0.00 0.00 80 1016.0
20260507054521 61 360 4.0 9.0 0.00 0.00 0.00 80 1016.0
20260507054421 61 360 4.0 9.0 0.00 0.00 0.00 80 1016.1
20260507054322 61 360 4.0 8.0 0.00 0.00 0.00 80 1016.2
20260507054222 61 360 4.0 8.0 0.00 0.00 0.00 80 1016.2
20260507054123 61 360 4.0 8.0 0.00 0.00 0.00 80 1016.3
20260507054028 61 360 4.0 8.0 0.00 0.00 0.00 80 1016.3
20260507053948 61 360 4.0 10.0 0.00 0.00 0.00 80 1016.4
20260507053828 61 360 4.0 10.0 0.00 0.00 0.00 80 1016.3
20260507053749 61 360 4.0 10.0 0.00 0.00 0.00 80 1016.2
20260507053628 61 360 4.0 10.0 0.00 0.00 0.00 80 1016.2
20260507053530 61 360 3.0 10.0 0.00 0.00 0.00 80 1016.2
20260507053431 61 360 4.0 10.0 0.00 0.00 0.00 80 1016.2
20260507053336 61 360 4.0 10.0 0.00 0.00 0.00 80 1016.2
20260507053255 61 360 4.0 10.0 0.00 0.00 0.00 80 1016.2
20260507053155 61 360 4.0 10.0 0.00 0.00 0.00 80 1016.3
20260507053035 61 360 4.0 10.0 0.00 0.00 0.00 80 1016.4
20260507052935 61 55 4.0 10.0 0.00 0.00 0.00 80 1016.4
20260507052856 61 360 4.0 10.0 0.00 0.00 0.00 80 1016.3
20260507052756 61 360 3.0 9.0 0.00 0.00 0.00 81 1016.3
20260507052634 61 360 4.0 9.0 0.00 0.00 0.00 80 1016.2
20260507052519 61 360 4.0 9.0 0.00 0.00 0.00 81 1016.2
20260507052419 61 360 4.0 9.0 0.00 0.00 0.00 81 1016.2
20260507052318 61 360 4.0 9.0 0.00 0.00 0.00 81 1016.2
20260507052219 61 360 4.0 12.0 0.00 0.00 0.00 80 1016.2
20260507052119 61 360 4.0 12.0 0.00 0.00 0.00 80 1016.1
20260507052019 61 360 5.0 12.0 0.00 0.00 0.00 80 1016.1
20260507051920 61 360 5.0 12.0 0.00 0.00 0.00 80 1016.1
20260507051824 61 360 5.0 12.0 0.00 0.00 0.00 80 1016.1
20260507051724 61 360 5.0 12.0 0.00 0.00 0.00 81 1016.0
20260507051625 61 360 5.0 12.0 0.00 0.00 0.00 81 1016.0
20260507051526 61 360 5.0 12.0 0.00 0.00 0.00 81 1016.0
20260507051428 61 360 5.0 11.0 0.00 0.00 0.00 81 1016.0
20260507051348 61 360 5.0 10.0 0.00 0.00 0.00 81 1016.0
20260507051226 61 360 5.0 10.0 0.00 0.00 0.00 81 1016.0
20260507051132 61 360 5.0 10.0 0.00 0.00 0.00 81 1016.0
20260507051033 61 360 5.0 10.0 0.00 0.00 0.00 81 1016.0
20260507050932 61 360 5.0 11.0 0.00 0.00 0.00 81 1016.0
20260507050833 61 360 5.0 11.0 0.00 0.00 0.00 81 1015.9
20260507050754 61 360 4.0 11.0 0.00 0.00 0.00 81 1015.8
20260507050632 61 360 5.0 11.0 0.00 0.00 0.00 81 1015.8
20260507050533 61 360 5.0 11.0 0.00 0.00 0.00 81 1016.0
20260507050418 61 360 5.0 11.0 0.00 0.00 0.00 81 1016.0
20260507050318 61 360 6.0 11.0 0.00 0.00 0.00 81 1015.9
20260507050218 62 38 6.0 11.0 0.00 0.00 0.00 81 1016.0
20260507050120 62 360 5.0 11.0 0.00 0.00 0.00 81 1015.9
20260507050042 62 360 5.0 10.0 0.00 0.00 0.00 81 1015.9
20260507045917 62 360 5.0 10.0 0.00 0.00 0.00 81 1015.8
20260507045823 62 360 4.0 10.0 0.00 0.00 0.00 81 1015.6
20260507045723 62 360 4.0 10.0 0.00 0.00 0.00 81 1015.8
20260507045623 62 360 5.0 10.0 0.00 0.00 0.00 81 1015.8
20260507045544 62 360 5.0 10.0 0.00 0.00 0.00 81 1015.8
20260507045423 62 360 5.0 10.0 0.00 0.00 0.00 81 1015.8
20260507045324 62 360 5.0 12.0 0.00 0.00 0.00 81 1015.9
20260507045225 62 360 6.0 12.0 0.00 0.00 0.00 81 1015.9
20260507045129 62 360 6.0 12.0 0.00 0.00 0.00 81 1015.9
20260507045049 62 360 6.0 12.0 0.00 0.00 0.00 81 1016.1
20260507044928 62 360 6.0 12.0 0.00 0.00 0.00 81 1016.1
20260507044828 62 360 6.0 12.0 0.00 0.00 0.00 81 1016.1
20260507044730 62 360 5.0 12.0 0.00 0.00 0.00 81 1016.1
20260507044630 62 360 5.0 12.0 0.00 0.00 0.00 81 1016.0
20260507044531 62 360 5.0 12.0 0.00 0.00 0.00 81 1016.1
20260507044436 62 360 6.0 12.0 0.00 0.00 0.00 81 1016.0
20260507044316 61 360 7.0 12.0 0.00 0.00 0.00 81 1016.0
20260507044217 61 360 7.0 12.0 0.00 0.00 0.00 81 1016.0
20260507044117 61 360 7.0 12.0 0.00 0.00 0.00 82 1016.0
20260507044018 61 360 6.0 12.0 0.00 0.00 0.00 82 1016.1
20260507043937 61 360 6.0 11.0 0.00 0.00 0.00 82 1016.0
20260507043818 61 360 6.0 11.0 0.00 0.00 0.00 82 1016.0
20260507043722 61 360 6.0 11.0 0.00 0.00 0.00 82 1015.9
20260507043623 61 360 6.0 11.0 0.00 0.00 0.00 82 1016.0
20260507043523 61 360 6.0 11.0 0.00 0.00 0.00 82 1016.0
20260507043423 62 360 6.0 11.0 0.00 0.00 0.00 82 1016.1
20260507043324 61 360 6.0 11.0 0.00 0.00 0.00 82 1016.0
20260507043223 61 360 6.0 11.0 0.00 0.00 0.00 82 1016.0
20260507043124 62 360 6.0 11.0 0.00 0.00 0.00 82 1015.9
20260507043049 62 360 6.0 11.0 0.00 0.00 0.00 82 1015.9
20260507042927 62 360 5.0 11.0 0.00 0.00 0.00 82 1016.0
20260507042828 62 360 5.0 11.0 0.00 0.00 0.00 82 1016.0
20260507042729 62 360 5.0 11.0 0.00 0.00 0.00 81 1016.1
20260507042629 62 360 5.0 11.0 0.00 0.00 0.00 81 1016.2
20260507042529 62 360 5.0 11.0 0.00 0.00 0.00 81 1016.2
20260507042430 62 360 6.0 11.0 0.00 0.00 0.00 81 1016.2
20260507042334 62 360 6.0 11.0 0.00 0.00 0.00 81 1016.2
20260507042235 62 360 5.0 11.0 0.00 0.00 0.00 82 1016.1
20260507042135 62 360 6.0 11.0 0.00 0.00 0.00 82 1016.1
20260507042035 62 360 5.0 11.0 0.00 0.00 0.00 82 1016.1
20260507041916 62 360 5.0 11.0 0.00 0.00 0.00 81 1016.2
20260507041816 62 360 5.0 13.0 0.00 0.00 0.00 81 1016.2
20260507041721 62 360 5.0 13.0 0.00 0.00 0.00 81 1016.2
20260507041621 62 360 5.0 13.0 0.00 0.00 0.00 81 1016.2
20260507041541 62 360 5.0 13.0 0.00 0.00 0.00 81 1016.1
20260507041421 62 360 4.0 13.0 0.00 0.00 0.00 82 1016.1
20260507041322 62 360 4.0 13.0 0.00 0.00 0.00 82 1016.0
20260507041222 62 360 4.0 13.0 0.00 0.00 0.00 82 1015.9
20260507041143 62 360 4.0 13.0 0.00 0.00 0.00 82 1015.9
20260507041027 62 18 4.0 13.0 0.00 0.00 0.00 82 1015.8
20260507040927 62 360 5.0 13.0 0.00 0.00 0.00 81 1015.8
20260507040827 62 360 7.0 13.0 0.00 0.00 0.00 82 1015.8
20260507040728 62 360 7.0 13.0 0.00 0.00 0.00 82 1015.7
20260507040627 62 360 7.0 13.0 0.00 0.00 0.00 82 1015.6
20260507040528 62 360 7.0 13.0 0.00 0.00 0.00 82 1015.6
20260507040429 62 360 6.0 13.0 0.00 0.00 0.00 82 1015.6
20260507040332 62 360 6.0 11.0 0.00 0.00 0.00 82 1015.7
20260507040233 62 360 6.0 11.0 0.00 0.00 0.00 82 1015.7
20260507040133 62 360 6.0 11.0 0.00 0.00 0.00 82 1015.7
20260507040034 62 360 6.0 12.0 0.00 0.00 0.00 82 1015.7
20260507035934 62 360 5.0 12.0 0.00 0.00 0.00 82 1015.8
20260507035836 62 360 5.0 12.0 0.00 0.00 0.00 82 1015.8
20260507035719 62 360 4.0 12.0 0.00 0.00 0.00 82 1015.9
20260507035619 62 360 4.0 12.0 0.00 0.00 0.00 82 1015.9
20260507035519 62 360 4.0 12.0 0.00 0.00 0.00 81 1016.0
20260507035438 62 360 4.0 12.0 0.00 0.00 0.00 81 1015.8
20260507035338 62 360 5.0 12.0 0.00 0.00 0.00 81 1015.9
20260507035218 62 360 6.0 12.0 0.00 0.00 0.00 81 1015.9
20260507035119 62 360 6.0 12.0 0.00 0.00 0.00 81 1015.8
20260507035019 62 360 7.0 12.0 0.00 0.00 0.00 81 1015.9
20260507034920 62 360 7.0 12.0 0.00 0.00 0.00 81 1015.9
20260507034824 62 360 7.0 12.0 0.00 0.00 0.00 81 1016.0
20260507034724 62 360 6.0 12.0 0.00 0.00 0.00 81 1016.1
20260507034625 62 360 6.0 11.0 0.00 0.00 0.00 81 1016.1
20260507034545 62 360 5.0 11.0 0.00 0.00 0.00 81 1016.0
20260507034424 62 17 6.0 11.0 0.00 0.00 0.00 81 1016.1
20260507034324 62 360 6.0 11.0 0.00 0.00 0.00 81 1016.1
20260507034225 62 360 6.0 11.0 0.00 0.00 0.00 81 1016.2
20260507034128 62 360 6.0 11.0 0.00 0.00 0.00 82 1016.2
20260507034029 62 360 6.0 11.0 0.00 0.00 0.00 82 1016.1
20260507033950 62 360 6.0 11.0 0.00 0.00 0.00 81 1016.0
20260507033849 62 360 6.0 11.0 0.00 0.00 0.00 82 1015.8
20260507033728 62 360 6.0 10.0 0.00 0.00 0.00 81 1015.8
20260507033649 62 360 6.0 10.0 0.00 0.00 0.00 81 1015.8
20260507033529 62 360 6.0 10.0 0.00 0.00 0.00 81 1015.8
20260507033429 62 360 6.0 10.0 0.00 0.00 0.00 81 1015.9
20260507033333 62 360 5.0 9.0 0.00 0.00 0.00 81 1015.9
20260507033234 62 360 5.0 9.0 0.00 0.00 0.00 81 1015.8
20260507033135 62 360 5.0 12.0 0.00 0.00 0.00 81 1015.8
20260507033035 62 360 5.0 12.0 0.00 0.00 0.00 81 1015.8
20260507032917 62 360 5.0 12.0 0.00 0.00 0.00 81 1015.9
20260507032819 62 360 5.0 12.0 0.00 0.00 0.00 81 1015.9
20260507032744 62 360 5.0 12.0 0.00 0.00 0.00 81 1015.9
20260507032622 62 360 5.0 13.0 0.00 0.00 0.00 81 1016.0
20260507032523 62 360 5.0 13.0 0.00 0.00 0.00 81 1015.9
20260507032443 62 360 6.0 13.0 0.00 0.00 0.00 81 1015.9
20260507032323 62 360 6.0 13.0 0.00 0.00 0.00 81 1015.9
20260507032224 62 360 7.0 13.0 0.00 0.00 0.00 81 1015.8
20260507032144 62 360 7.0 13.0 0.00 0.00 0.00 81 1015.7
20260507032022 62 360 7.0 13.0 0.00 0.00 0.00 81 1015.6
20260507031928 62 360 7.0 13.0 0.00 0.00 0.00 82 1015.6
20260507031829 62 360 7.0 13.0 0.00 0.00 0.00 82 1015.6
20260507031728 62 360 7.0 13.0 0.00 0.00 0.00 82 1015.5
20260507031649 62 360 7.0 13.0 0.00 0.00 0.00 82 1015.5
20260507031527 62 360 6.0 12.0 0.00 0.00 0.00 82 1015.5
20260507031429 62 360 5.0 11.0 0.00 0.00 0.00 82 1015.5
20260507031329 62 360 5.0 11.0 0.00 0.00 0.00 82 1015.5
20260507031235 62 360 6.0 11.0 0.00 0.00 0.00 82 1015.5
20260507031116 62 360 6.0 11.0 0.00 0.00 0.00 82 1015.5
20260507031036 62 360 6.0 11.0 0.00 0.00 0.00 82 1015.5
20260507030956 62 360 6.0 11.0 0.00 0.00 0.00 82 1015.6
20260507030816 62 360 5.0 11.0 0.00 0.00 0.00 81 1015.6
20260507030736 62 360 6.0 11.0 0.00 0.00 0.00 82 1015.6
20260507030616 62 360 5.0 11.0 0.00 0.00 0.00 82 1015.8
20260507030521 62 360 6.0 11.0 0.00 0.00 0.00 82 1015.8
20260507030422 62 360 6.0 11.0 0.00 0.00 0.00 82 1015.8
20260507030342 62 360 6.0 11.0 0.00 0.00 0.00 82 1015.8
20260507030218 62 360 6.0 10.0 0.00 0.00 0.00 82 1015.9
20260507030119 62 360 6.0 10.0 0.00 0.00 0.00 82 1015.9
20260507030019 62 360 6.0 10.0 0.00 0.00 0.00 82 1016.0
20260507025919 62 360 6.0 10.0 0.00 0.00 0.00 82 1015.8
20260507025844 62 360 6.0 10.0 0.00 0.00 0.00 82 1015.9
20260507025723 62 360 6.0 10.0 0.00 0.00 0.00 82 1015.9
20260507025623 62 360 5.0 10.0 0.00 0.00 0.00 82 1015.8
20260507025543 62 360 5.0 10.0 0.00 0.00 0.00 82 1015.7
20260507025423 62 360 5.0 11.0 0.00 0.00 0.00 82 1015.6
20260507025324 62 360 4.0 11.0 0.00 0.00 0.00 82 1015.6
20260507025223 62 360 4.0 11.0 0.00 0.00 0.00 82 1015.5
20260507025145 62 360 4.0 13.0 0.00 0.00 0.00 82 1015.6
20260507025028 62 360 5.0 13.0 0.00 0.00 0.00 82 1015.6
20260507024929 62 360 6.0 13.0 0.00 0.00 0.00 82 1015.6
20260507024829 62 360 6.0 13.0 0.00 0.00 0.00 82 1015.6
20260507024730 62 360 7.0 13.0 0.00 0.00 0.00 82 1015.4
20260507024630 62 360 7.0 13.0 0.00 0.00 0.00 81 1015.4
20260507024530 62 360 6.0 13.0 0.00 0.00 0.00 81 1015.3
20260507024431 62 360 6.0 13.0 0.00 0.00 0.00 81 1015.3
20260507024316 62 360 6.0 12.0 0.00 0.00 0.00 81 1015.2
20260507024237 62 360 6.0 11.0 0.00 0.00 0.00 81 1015.2
20260507024135 62 360 6.0 11.0 0.00 0.00 0.00 82 1015.2
20260507024016 62 360 5.0 11.0 0.00 0.00 0.00 81 1015.1
20260507023937 62 360 5.0 11.0 0.00 0.00 0.00 81 1015.2
20260507023816 62 360 5.0 11.0 0.00 0.00 0.00 81 1015.3
20260507023717 62 360 5.0 11.0 0.00 0.00 0.00 81 1015.3
20260507023621 62 360 5.0 12.0 0.00 0.00 0.00 81 1015.3
20260507023522 62 360 5.0 12.0 0.00 0.00 0.00 81 1015.5
20260507023442 63 360 6.0 12.0 0.00 0.00 0.00 81 1015.4
20260507023342 63 360 6.0 12.0 0.00 0.00 0.00 81 1015.4
20260507023221 63 360 6.0 12.0 0.00 0.00 0.00 81 1015.3
20260507023122 63 360 6.0 12.0 0.00 0.00 0.00 81 1015.3
20260507023023 62 360 6.0 12.0 0.00 0.00 0.00 81 1015.2
20260507022943 63 360 6.0 12.0 0.00 0.00 0.00 81 1015.1
20260507022827 63 360 6.0 12.0 0.00 0.00 0.00 81 1015.1
20260507022729 63 360 6.0 14.0 0.00 0.00 0.00 81 1015.1
20260507022627 63 360 7.0 14.0 0.00 0.00 0.00 81 1015.1
20260507022548 63 360 7.0 14.0 0.00 0.00 0.00 81 1015.1
20260507022427 63 360 7.0 14.0 0.00 0.00 0.00 81 1015.1
20260507022328 63 360 8.0 14.0 0.00 0.00 0.00 81 1015.0
20260507022228 63 360 8.0 14.0 0.00 0.00 0.00 81 1015.0
20260507022153 63 360 8.0 14.0 0.00 0.00 0.00 81 1015.0
20260507022033 63 360 8.0 14.0 0.00 0.00 0.00 81 1015.1
20260507021933 63 360 7.0 13.0 0.00 0.00 0.00 81 1015.1
20260507021854 63 360 7.0 12.0 0.00 0.00 0.00 81 1015.1
20260507021732 63 360 7.0 12.0 0.00 0.00 0.00 81 1015.1
20260507021653 63 360 7.0 11.0 0.00 0.00 0.00 81 1015.0
20260507021533 63 360 7.0 11.0 0.00 0.00 0.00 81 1015.0
20260507021417 63 360 7.0 11.0 0.00 0.00 0.00 81 1014.9
20260507021317 63 360 6.0 11.0 0.00 0.00 0.00 81 1014.9
20260507021239 63 360 6.0 11.0 0.00 0.00 0.00 81 1014.7
20260507021138 63 360 6.0 11.0 0.00 0.00 0.00 81 1014.8
20260507021017 63 360 6.0 11.0 0.00 0.00 0.00 81 1014.8
20260507020918 63 360 6.0 11.0 0.00 0.00 0.00 81 1014.8
20260507020818 63 360 7.0 11.0 0.00 0.00 0.00 81 1014.8
20260507020740 63 360 7.0 11.0 0.00 0.00 0.00 81 1014.9
20260507020638 63 360 6.0 11.0 0.00 0.00 0.00 81 1014.8
20260507020522 63 360 5.0 11.0 0.00 0.00 0.00 81 1014.8
20260507020442 63 360 5.0 11.0 0.00 0.00 0.00 81 1014.8
20260507020322 63 360 5.0 11.0 0.00 0.00 0.00 81 1014.8
20260507020222 63 360 5.0 11.0 0.00 0.00 0.00 81 1014.9
20260507020142 63 360 6.0 11.0 0.00 0.00 0.00 81 1014.8
20260507020022 63 360 6.0 11.0 0.00 0.00 0.00 81 1014.7
20260507015922 63 360 7.0 11.0 0.00 0.00 0.00 81 1014.7
20260507015827 63 360 7.0 11.0 0.00 0.00 0.00 80 1014.7
20260507015729 63 360 6.0 11.0 0.00 0.00 0.00 80 1014.7
20260507015649 63 360 6.0 11.0 0.00 0.00 0.00 80 1014.7
20260507015548 63 360 5.0 11.0 0.00 0.00 0.00 80 1014.7
20260507015427 63 360 4.0 11.0 0.00 0.00 0.00 80 1014.8
20260507015326 63 360 4.0 9.0 0.00 0.00 0.00 80 1014.8
20260507015228 63 360 4.0 10.0 0.00 0.00 0.00 80 1014.7
20260507015127 63 360 3.0 10.0 0.00 0.00 0.00 80 1014.6
20260507015032 63 360 3.0 10.0 0.00 0.00 0.00 80 1014.6
20260507014933 63 360 4.0 10.0 0.00 0.00 0.00 80 1014.6
20260507014832 63 360 4.0 10.0 0.00 0.00 0.00 80 1014.6
20260507014753 63 360 4.0 10.0 0.00 0.00 0.00 80 1014.6
20260507014653 63 360 5.0 10.0 0.00 0.00 0.00 80 1014.7
20260507014531 63 360 5.0 10.0 0.00 0.00 0.00 80 1014.6
20260507014453 63 360 5.0 10.0 0.00 0.00 0.00 80 1014.6
20260507014331 63 360 5.0 10.0 0.00 0.00 0.00 80 1014.6
20260507014252 63 360 5.0 10.0 0.00 0.00 0.00 80 1014.6
20260507014136 63 360 5.0 10.0 0.00 0.00 0.00 80 1014.6
20260507014056 63 360 5.0 10.0 0.00 0.00 0.00 80 1014.5
20260507013915 63 360 6.0 10.0 0.00 0.00 0.00 80 1014.5
20260507013835 63 360 6.0 10.0 0.00 0.00 0.00 80 1014.5
20260507013716 63 360 6.0 10.0 0.00 0.00 0.00 80 1014.4
20260507013616 63 360 7.0 10.0 0.00 0.00 0.00 80 1014.3
20260507013516 63 360 6.0 11.0 0.00 0.00 0.00 80 1014.2
20260507013421 63 360 6.0 12.0 0.00 0.00 0.00 80 1014.2
20260507013322 63 360 5.0 12.0 0.00 0.00 0.00 80 1014.2
20260507013223 63 360 5.0 12.0 0.00 0.00 0.00 80 1014.1
20260507013123 63 360 5.0 12.0 0.00 0.00 0.00 80 1014.2
20260507013024 63 360 5.0 12.0 0.00 0.00 0.00 80 1014.2
20260507012924 63 360 6.0 12.0 0.00 0.00 0.00 80 1014.2
20260507012844 63 360 6.0 12.0 0.00 0.00 0.00 80 1014.3
20260507012730 63 360 7.0 12.0 0.00 0.00 0.00 80 1014.3
20260507012650 63 360 7.0 12.0 0.00 0.00 0.00 80 1014.3
20260507012530 63 360 7.0 12.0 0.00 0.00 0.00 80 1014.3
20260507012450 63 360 7.0 12.0 0.00 0.00 0.00 80 1014.3
20260507012328 63 360 6.0 12.0 0.00 0.00 0.00 80 1014.3
20260507012226 63 360 6.0 11.0 0.00 0.00 0.00 80 1014.2
20260507012147 63 360 6.0 14.0 0.00 0.00 0.00 80 1014.2
20260507012026 63 360 6.0 14.0 0.00 0.00 0.00 80 1014.0
20260507011927 63 360 6.0 14.0 0.00 0.00 0.00 80 1014.0
20260507011832 63 360 6.0 14.0 0.00 0.00 0.00 80 1014.1
20260507011753 63 360 6.0 14.0 0.00 0.00 0.00 80 1014.1
20260507011634 63 360 6.0 14.0 0.00 0.00 0.00 80 1014.1
20260507011535 63 360 6.0 14.0 0.00 0.00 0.00 80 1014.1
20260507011415 63 360 7.0 14.0 0.00 0.00 0.00 80 1014.1
20260507011336 63 360 7.0 14.0 0.00 0.00 0.00 80 1014.1
20260507011119 63 360 8.0 13.0 0.00 0.00 0.00 80 1014.1
20260507011020 63 360 7.0 13.0 0.00 0.00 0.00 80 1014.2
20260507010920 63 360 7.0 14.0 0.00 0.00 0.00 80 1014.2
20260507010820 63 360 7.0 14.0 0.00 0.00 0.00 80 1014.2
20260507010721 63 360 8.0 14.0 0.00 0.00 0.00 80 1014.3
20260507010620 63 360 8.0 15.0 0.00 0.00 0.00 80 1014.0
20260507010521 63 360 8.0 15.0 0.00 0.00 0.00 80 1013.9
20260507010424 63 360 8.0 15.0 0.00 0.00 0.00 80 1013.8
20260507010325 63 360 8.0 15.0 0.00 0.00 0.00 80 1013.7
20260507010246 63 360 8.0 15.0 0.00 0.00 0.00 80 1013.8
20260507010125 63 360 8.0 15.0 0.00 0.00 0.00 80 1013.9
20260507010026 63 31 8.0 15.0 0.00 0.00 0.00 80 1013.9
20260507005925 63 360 7.0 15.0 0.00 0.00 0.00 80 1013.9
20260507005826 63 360 8.0 15.0 0.00 0.00 0.00 80 1014.0
20260507005731 63 360 8.0 15.0 0.00 0.00 0.00 80 1014.0
20260507005631 63 360 7.0 12.0 0.00 0.00 0.00 80 1014.0
20260507005531 63 360 7.0 12.0 0.00 0.00 0.00 80 1014.0
20260507005431 63 360 7.0 12.0 0.00 0.00 0.00 80 1014.1
20260507005332 63 360 6.0 12.0 0.00 0.00 0.00 80 1014.1
20260507005233 63 360 6.0 12.0 0.00 0.00 0.00 80 1014.1
20260507005117 63 360 6.0 12.0 0.00 0.00 0.00 80 1013.9
20260507005037 63 360 6.0 11.0 0.00 0.00 0.00 80 1013.8
20260507004936 63 360 6.0 11.0 0.00 0.00 0.00 80 1013.8
20260507004856 63 360 7.0 12.0 0.00 0.00 0.00 80 1013.9
20260507004735 63 360 7.0 12.0 0.00 0.00 0.00 80 1013.9
20260507004616 63 360 6.0 14.0 0.00 0.00 0.00 80 1013.8
20260507004516 63 360 6.0 14.0 0.00 0.00 0.00 80 1013.9
20260507004421 63 360 6.0 14.0 0.00 0.00 0.00 80 1013.8
20260507004322 63 360 7.0 14.0 0.00 0.00 0.00 80 1013.8
20260507004221 63 360 7.0 14.0 0.00 0.00 0.00 80 1013.8
20260507004122 63 360 7.0 14.0 0.00 0.00 0.00 80 1013.9
20260507004025 63 360 7.0 14.0 0.00 0.00 0.00 80 1013.9
20260507003945 63 360 7.0 14.0 0.00 0.00 0.00 80 1013.8
20260507003824 63 360 7.0 14.0 0.00 0.00 0.00 80 1013.7
20260507003745 63 360 6.0 14.0 0.00 0.00 0.00 80 1013.7
20260507003629 63 360 7.0 14.0 0.00 0.00 0.00 80 1013.7
20260507003528 63 360 7.0 14.0 0.00 0.00 0.00 79 1013.4
20260507003449 63 360 7.0 17.0 0.00 0.00 0.00 79 1013.3
20260507003328 63 360 8.0 17.0 0.00 0.00 0.00 79 1013.3
20260507003249 63 360 8.0 17.0 0.00 0.00 0.00 79 1013.3
20260507003126 63 360 8.0 17.0 0.00 0.00 0.00 79 1013.5
20260507003028 63 360 8.0 17.0 0.00 0.00 0.00 79 1013.5
20260507002928 63 360 9.0 17.0 0.00 0.00 0.00 79 1013.7
20260507002828 63 360 9.0 17.0 0.00 0.00 0.00 79 1013.7
20260507002733 63 360 8.0 17.0 0.00 0.00 0.00 79 1013.8
20260507002633 63 360 7.0 17.0 0.00 0.00 0.00 79 1013.8
20260507002532 63 360 7.0 16.0 0.00 0.00 0.00 79 1013.8
20260507002433 63 360 7.0 16.0 0.00 0.00 0.00 79 1013.6
20260507002333 63 360 7.0 16.0 0.00 0.00 0.00 79 1013.7
20260507002234 63 360 7.0 16.0 0.00 0.00 0.00 79 1013.6
20260507002118 63 360 8.0 16.0 0.00 0.00 0.00 79 1013.5
20260507002018 63 360 8.0 16.0 0.00 0.00 0.00 79 1013.4
20260507001919 63 360 7.0 16.0 0.00 0.00 0.00 79 1013.4
20260507001819 63 360 7.0 16.0 0.00 0.00 0.00 79 1013.5
20260507001719 63 360 8.0 16.0 0.00 0.00 0.00 79 1013.5
20260507001620 63 360 9.0 16.0 0.00 0.00 0.00 79 1013.7
20260507001541 63 360 9.0 16.0 0.00 0.00 0.00 79 1013.7
20260507001424 63 360 10.0 16.0 0.00 0.00 0.00 79 1013.7
20260507001324 63 360 10.0 16.0 0.00 0.00 0.00 79 1013.7
20260507001224 63 360 10.0 16.0 0.00 0.00 0.00 79 1013.6
20260507001124 63 360 10.0 16.0 0.00 0.00 0.00 79 1013.5
20260507001044 63 360 8.0 16.0 0.00 0.00 0.00 79 1013.5
20260507000923 63 360 8.0 15.0 0.00 0.00 0.00 80 1013.5
20260507000825 63 360 8.0 15.0 0.00 0.00 0.00 80 1013.5
20260507000728 63 360 8.0 15.0 0.00 0.00 0.00 80 1013.5
20260507000629 63 360 8.0 16.0 0.00 0.00 0.00 80 1013.4
20260507000549 63 360 9.0 17.0 0.00 0.00 0.00 80 1013.4
20260507000429 63 360 9.0 17.0 0.00 0.00 0.00 79 1013.3
20260507000330 63 360 9.0 17.0 0.00 0.00 0.00 79 1013.3
20260507000230 63 360 10.0 17.0 0.00 0.00 0.00 79 1013.4
20260507000129 63 360 11.0 17.0 0.00 0.00 0.00 79 1013.4
20260507000050 63 360 10.0 17.0 0.00 0.00 0.00 79 1013.5
20260506235934 63 360 10.0 17.0 0.00 0.00 0.00 79 1013.7
20260506235834 63 360 10.0 17.0 0.00 0.00 0.00 79 1013.7
20260506235736 63 360 10.0 17.0 0.00 0.00 0.00 79 1013.5
20260506235616 63 360 9.0 17.0 0.00 0.00 0.00 79 1013.7
20260506235516 63 360 9.0 17.0 0.00 0.00 0.00 79 1013.6
20260506235437 63 360 8.0 17.0 0.00 0.00 0.00 79 1013.5
20260506235336 63 360 8.0 17.0 0.00 0.00 0.00 79 1013.5
20260506235220 63 360 8.0 17.0 0.00 0.00 0.00 79 1013.4
20260506235120 63 360 8.0 17.0 0.00 0.00 0.00 79 1013.4
20260506235021 63 360 8.0 17.0 0.00 0.00 0.00 79 1013.5
20260506234921 63 360 9.0 17.0 0.00 0.00 0.00 79 1013.5
20260506234822 63 360 9.0 17.0 0.00 0.00 0.00 79 1013.4
20260506234723 63 360 10.0 17.0 0.00 0.00 0.00 79 1013.5
20260506234643 63 360 10.0 17.0 0.00 0.00 0.00 79 1013.4
20260506234542 63 360 9.0 16.0 0.00 0.00 0.00 79 1013.3
20260506234426 63 360 9.0 16.0 0.00 0.00 0.00 79 1013.4
20260506234326 63 360 9.0 16.0 0.00 0.00 0.00 79 1013.5
20260506234227 63 360 9.0 16.0 0.00 0.00 0.00 79 1013.5
20260506234128 63 360 9.0 16.0 0.00 0.00 0.00 79 1013.5
20260506234048 63 360 9.0 16.0 0.00 0.00 0.00 79 1013.5
20260506233927 63 360 9.0 16.0 0.00 0.00 0.00 79 1013.5
20260506233827 63 315 8.0 16.0 0.00 0.00 0.00 79 1013.5
20260506233731 63 360 7.0 16.0 0.00 0.00 0.00 79 1013.5
20260506233632 63 360 7.0 16.0 0.00 0.00 0.00 79 1013.4
20260506233533 63 360 8.0 16.0 0.00 0.00 0.00 79 1013.5
20260506233454 63 360 7.0 16.0 0.00 0.00 0.00 80 1013.4
20260506233334 63 360 7.0 16.0 0.00 0.00 0.00 79 1013.3
20260506233235 63 360 8.0 16.0 0.00 0.00 0.00 79 1013.3
20260506233135 63 360 8.0 16.0 0.00 0.00 0.00 80 1013.3
20260506233020 63 360 7.0 16.0 0.00 0.00 0.00 79 1013.2
20260506232920 63 360 8.0 16.0 0.00 0.00 0.00 79 1013.1
20260506232822 63 360 9.0 16.0 0.00 0.00 0.00 79 1013.1
20260506232721 63 360 9.0 17.0 0.00 0.00 0.00 79 1013.2
20260506232642 63 360 9.0 17.0 0.00 0.00 0.00 79 1013.2
20260506232521 63 360 9.0 17.0 0.00 0.00 0.00 79 1013.2
20260506232443 63 360 10.0 17.0 0.00 0.00 0.00 79 1013.2
20260506232320 63 360 9.0 17.0 0.00 0.00 0.00 79 1013.2
20260506232225 63 360 9.0 17.0 0.00 0.00 0.00 79 1013.2
20260506232126 63 360 9.0 17.0 0.00 0.00 0.00 79 1013.3
20260506232047 63 360 10.0 17.0 0.00 0.00 0.00 79 1013.2
20260506231947 63 360 10.0 15.0 0.00 0.00 0.00 79 1013.2
20260506231826 63 360 9.0 15.0 0.00 0.00 0.00 79 1013.3
20260506231726 63 360 10.0 15.0 0.00 0.00 0.00 79 1013.2
20260506231646 63 360 10.0 15.0 0.00 0.00 0.00 79 1013.2
20260506231526 63 360 10.0 15.0 0.00 0.00 0.00 79 1013.2
20260506231450 63 360 9.0 15.0 0.00 0.00 0.00 79 1013.2
20260506231330 63 360 9.0 15.0 0.00 0.00 0.00 79 1013.2
20260506231229 63 360 8.0 15.0 0.00 0.00 0.00 79 1013.2
20260506231130 63 360 8.0 17.0 0.00 0.00 0.00 79 1013.3
20260506231030 63 360 7.0 17.0 0.00 0.00 0.00 79 1013.2
20260506230931 63 360 8.0 17.0 0.00 0.00 0.00 79 1013.2
20260506230832 63 360 9.0 17.0 0.00 0.00 0.00 79 1013.2
20260506230756 63 360 9.0 17.0 0.00 0.00 0.00 78 1013.2
20260506230635 63 360 9.0 17.0 0.00 0.00 0.00 78 1013.2
20260506230516 63 360 9.0 17.0 0.00 0.00 0.00 78 1013.3
20260506230417 63 360 9.0 17.0 0.00 0.00 0.00 78 1013.3
20260506230337 63 360 8.0 17.0 0.00 0.00 0.00 78 1013.3
20260506230237 63 360 8.0 17.0 0.00 0.00 0.00 79 1013.3
20260506230138 63 360 8.0 17.0 0.00 0.00 0.00 79 1013.3
20260506230017 63 360 8.0 17.0 0.00 0.00 0.00 79 1013.3
20260506225921 63 360 8.0 17.0 0.00 0.00 0.00 79 1013.2
20260506225822 63 360 9.0 17.0 0.00 0.00 0.00 79 1013.3
20260506225721 63 360 9.0 17.0 0.00 0.00 0.00 79 1013.3
20260506225643 63 360 10.0 17.0 0.00 0.00 0.00 79 1013.3
20260506225522 63 360 11.0 17.0 0.00 0.00 0.00 78 1013.3
20260506225423 63 360 11.0 16.0 0.00 0.00 0.00 78 1013.4
20260506225323 63 360 10.0 16.0 0.00 0.00 0.00 78 1013.4
20260506225244 63 360 10.0 16.0 0.00 0.00 0.00 78 1013.3
20260506225127 63 360 9.0 16.0 0.00 0.00 0.00 78 1013.3
20260506225028 63 360 9.0 16.0 0.00 0.00 0.00 78 1013.4
20260506224928 63 360 9.0 16.0 0.00 0.00 0.00 78 1013.3
20260506224847 63 360 10.0 16.0 0.00 0.00 0.00 78 1013.2
20260506224748 63 360 10.0 17.0 0.00 0.00 0.00 78 1013.2
20260506224627 63 360 10.0 17.0 0.00 0.00 0.00 78 1013.2
20260506224547 64 360 9.0 17.0 0.00 0.00 0.00 78 1013.2
20260506224427 63 360 8.0 17.0 0.00 0.00 0.00 78 1013.2
20260506224332 63 360 9.0 17.0 0.00 0.00 0.00 78 1013.1
20260506224252 63 360 10.0 17.0 0.00 0.00 0.00 78 1013.2
20260506224131 63 360 11.0 17.0 0.00 0.00 0.00 78 1013.2
20260506224052 63 360 11.0 17.0 0.00 0.00 0.00 78 1013.2
20260506223952 63 360 11.0 19.0 0.00 0.00 0.00 78 1013.2
20260506223831 63 360 11.0 19.0 0.00 0.00 0.00 78 1013.1
20260506223731 63 360 11.0 19.0 0.00 0.00 0.00 78 1013.1
20260506223616 63 360 11.0 19.0 0.00 0.00 0.00 78 1013.2
20260506223517 63 360 11.0 19.0 0.00 0.00 0.00 78 1013.2
20260506223417 64 360 11.0 19.0 0.00 0.00 0.00 78 1013.1
20260506223318 64 360 11.0 19.0 0.00 0.00 0.00 78 1013.1
20260506223217 64 360 11.0 19.0 0.00 0.00 0.00 77 1013.2
20260506223118 64 360 10.0 19.0 0.00 0.00 0.00 77 1013.1
20260506223019 64 360 11.0 19.0 0.00 0.00 0.00 77 1013.1
20260506222923 64 360 11.0 19.0 0.00 0.00 0.00 77 1013.2
20260506222823 64 360 12.0 19.0 0.00 0.00 0.00 77 1013.1
20260506222723 64 360 13.0 19.0 0.00 0.00 0.00 77 1013.0
20260506222623 64 360 11.0 19.0 0.00 0.00 0.00 77 1013.0
20260506222524 64 360 11.0 19.0 0.00 0.00 0.00 77 1013.0
20260506222424 64 360 11.0 17.0 0.00 0.00 0.00 78 1013.0
20260506222328 64 360 12.0 17.0 0.00 0.00 0.00 77 1013.0
20260506222229 64 360 13.0 17.0 0.00 0.00 0.00 77 1013.0
20260506222129 64 360 12.0 17.0 0.00 0.00 0.00 77 1013.0
20260506222030 64 360 12.0 17.0 0.00 0.00 0.00 77 1012.9
20260506221931 64 360 12.0 16.0 0.00 0.00 0.00 77 1012.9
20260506221832 64 360 11.0 16.0 0.00 0.00 0.00 77 1012.8
20260506221732 64 360 11.0 16.0 0.00 0.00 0.00 77 1012.9
20260506221616 64 360 11.0 16.0 0.00 0.00 0.00 77 1012.9
20260506221517 64 360 10.0 16.0 0.00 0.00 0.00 77 1013.0
20260506221418 64 360 10.0 16.0 0.00 0.00 0.00 77 1013.1
20260506221317 64 360 9.0 15.0 0.00 0.00 0.00 77 1013.0
20260506221217 65 360 9.0 16.0 0.00 0.00 0.00 76 1013.1
20260506221118 65 360 9.0 16.0 0.00 0.00 0.00 76 1013.1
20260506221022 65 360 9.0 16.0 0.00 0.00 0.00 76 1013.1
20260506220922 65 360 10.0 16.0 0.00 0.00 0.00 76 1013.2
20260506220822 65 360 10.0 16.0 0.00 0.00 0.00 76 1013.2
20260506220724 65 360 10.0 16.0 0.00 0.00 0.00 77 1013.1
20260506220624 65 360 10.0 16.0 0.00 0.00 0.00 77 1013.0
20260506220544 65 360 11.0 18.0 0.00 0.00 0.00 76 1013.1
20260506220423 65 360 10.0 18.0 0.00 0.00 0.00 76 1013.1
20260506220328 65 360 10.0 18.0 0.00 0.00 0.00 76 1013.1
20260506220228 65 360 9.0 18.0 0.00 0.00 0.00 77 1013.1
20260506220128 65 360 9.0 18.0 0.00 0.00 0.00 77 1013.1
20260506220029 65 360 10.0 18.0 0.00 0.00 0.00 77 1013.1
20260506215930 65 360 11.0 18.0 0.00 0.00 0.00 77 1013.1
20260506215849 65 360 12.0 18.0 0.00 0.00 0.00 76 1013.1
20260506215730 65 360 12.0 18.0 0.00 0.00 0.00 76 1013.2
20260506215649 65 360 11.0 18.0 0.00 0.00 0.00 76 1013.2
20260506215533 65 360 12.0 18.0 0.00 0.00 0.00 76 1013.2
20260506215433 65 360 11.0 18.0 0.00 0.00 0.00 76 1013.3
20260506215333 65 360 10.0 17.0 0.00 0.00 0.00 76 1013.2
20260506215254 65 360 9.0 17.0 0.00 0.00 0.00 76 1013.2
20260506215133 66 360 9.0 17.0 0.00 0.00 0.00 76 1013.1
20260506215054 66 360 8.0 17.0 0.00 0.00 0.00 76 1013.1
20260506214934 66 360 9.0 17.0 0.00 0.00 0.00 76 1013.0
20260506214818 65 360 10.0 17.0 0.00 0.00 0.00 76 1013.0
20260506214718 65 360 10.0 17.0 0.00 0.00 0.00 76 1013.0
20260506214619 65 360 10.0 18.0 0.00 0.00 0.00 76 1013.0
20260506214519 65 360 10.0 18.0 0.00 0.00 0.00 76 1013.0
20260506214420 65 360 9.0 18.0 0.00 0.00 0.00 76 1012.9
20260506214321 65 360 10.0 18.0 0.00 0.00 0.00 75 1013.0
20260506214242 65 360 9.0 22.0 0.00 0.00 0.00 75 1012.9
20260506214147 65 360 10.0 22.0 0.00 0.00 0.00 76 1012.9
20260506214026 66 360 11.0 22.0 0.00 0.00 0.00 76 1013.0
20260506213926 65 360 11.0 22.0 0.00 0.00 0.00 75 1013.0
20260506213827 66 360 12.0 22.0 0.00 0.00 0.00 75 1013.0
20260506213728 66 360 12.0 22.0 0.00 0.00 0.00 76 1013.0
20260506213649 65 360 13.0 22.0 0.00 0.00 0.00 76 1013.0
20260506213528 65 360 13.0 22.0 0.00 0.00 0.00 76 1012.9
20260506213433 65 360 13.0 22.0 0.00 0.00 0.00 75 1013.0
20260506213332 66 360 13.0 19.0 0.00 0.00 0.00 75 1013.0
20260506213232 66 360 12.0 18.0 0.00 0.00 0.00 75 1013.0
20260506213134 66 360 12.0 18.0 0.00 0.00 0.00 75 1012.9
20260506213035 66 360 11.0 21.0 0.00 0.00 0.00 75 1012.9
20260506212935 66 360 11.0 21.0 0.00 0.00 0.00 74 1012.9
20260506212817 67 360 11.0 21.0 0.00 0.00 0.00 74 1012.8
20260506212720 67 360 11.0 21.0 0.00 0.00 0.00 74 1012.8
20260506212621 67 360 12.0 21.0 0.00 0.00 0.00 75 1012.7
20260506212541 67 360 13.0 21.0 0.00 0.00 0.00 74 1012.7
20260506212422 67 360 14.0 21.0 0.00 0.00 0.00 74 1012.8
20260506212341 67 360 14.0 21.0 0.00 0.00 0.00 74 1012.8
20260506212221 67 360 13.0 21.0 0.00 0.00 0.00 74 1012.7
20260506212143 67 360 11.0 21.0 0.00 0.00 0.00 74 1012.8
20260506212042 67 360 10.0 21.0 0.00 0.00 0.00 73 1012.8
20260506211926 67 360 10.0 19.0 0.00 0.00 0.00 73 1012.8
20260506211827 68 360 10.0 19.0 0.00 0.00 0.00 73 1012.9
20260506211728 68 360 10.0 19.0 0.00 0.00 0.00 72 1012.8
20260506211628 68 360 10.0 19.0 0.00 0.00 0.00 72 1012.9
20260506211549 69 360 10.0 19.0 0.00 0.00 0.00 73 1012.8
20260506211429 68 360 10.0 20.0 0.00 0.00 0.00 73 1012.8
20260506211329 68 360 11.0 20.0 0.00 0.00 0.00 73 1012.8
20260506211234 68 360 12.0 20.0 0.00 0.00 0.00 72 1012.7
20260506211133 68 360 11.0 20.0 0.00 0.00 0.00 73 1012.8
20260506211034 68 360 11.0 20.0 0.00 0.00 0.00 73 1012.8
20260506210935 68 360 11.0 21.0 0.00 0.00 0.00 73 1012.8
20260506210816 68 360 11.0 21.0 0.00 0.00 0.00 73 1012.7
20260506210717 69 360 13.0 21.0 0.00 0.00 0.00 72 1012.6
20260506210622 69 360 12.0 21.0 0.00 0.00 0.00 72 1012.7
20260506210523 69 360 11.0 21.0 0.00 0.00 0.00 72 1012.7
20260506210443 69 360 10.0 21.0 0.00 0.00 0.00 72 1012.7
20260506210404 70 360 9.0 21.0 0.00 0.00 0.00 73 1012.7
20260506210216 69 360 11.0 21.0 0.00 0.00 0.00 72 1012.8
20260506210117 69 360 12.0 21.0 0.00 0.00 0.00 72 1012.8
20260506210017 69 360 12.0 21.0 0.00 0.00 0.00 72 1012.9
20260506205918 70 360 13.0 21.0 0.00 0.00 0.00 71 1012.9
20260506205824 70 360 12.0 21.0 0.00 0.00 0.00 72 1012.8
20260506205744 70 360 12.0 19.0 0.00 0.00 0.00 72 1012.8
20260506205624 70 360 12.0 19.0 0.00 0.00 0.00 71 1012.9
20260506205524 70 360 11.0 19.0 0.00 0.00 0.00 72 1012.8
20260506205425 70 360 12.0 22.0 0.00 0.00 0.00 72 1012.9